| time (UTC) | temp F | wind direction | speed MPH | gust MPH | rain 1hr in | rain 24hr in | rain mn in | humidity % | barometer mb |
| 20260505094100 | 57 | 228 | 2.0 | 5.0 | 0.00 | 0.00 | 0.00 | 43 | 1006.9 |
| 20260505094000 | 57 | 228 | 0.0 | 5.0 | 0.00 | 0.00 | 0.00 | 43 | 1006.9 |
| 20260505093859 | 57 | 225 | 1.0 | 5.0 | 0.00 | 0.00 | 0.00 | 43 | 1006.9 |
| 20260505093800 | 57 | 187 | 3.0 | 5.0 | 0.00 | 0.00 | 0.00 | 43 | 1006.9 |
| 20260505093700 | 57 | 196 | 4.0 | 5.0 | 0.00 | 0.00 | 0.00 | 43 | 1006.9 |
| 20260505093600 | 57 | 208 | 4.0 | 6.0 | 0.00 | 0.00 | 0.00 | 43 | 1006.9 |
| 20260505093501 | 58 | 181 | 0.0 | 7.0 | 0.00 | 0.00 | 0.00 | 43 | 1007.0 |
| 20260505093400 | 58 | 181 | 0.0 | 7.0 | 0.00 | 0.00 | 0.00 | 43 | 1006.9 |
| 20260505093302 | 58 | 239 | 0.0 | 7.0 | 0.00 | 0.00 | 0.00 | 43 | 1006.9 |
| 20260505093200 | 58 | 244 | 3.0 | 8.0 | 0.00 | 0.00 | 0.00 | 43 | 1007.0 |
| 20260505093000 | 58 | 130 | 1.0 | 8.0 | 0.00 | 0.00 | 0.00 | 43 | 1006.9 |
| 20260505092901 | 58 | 171 | 2.0 | 8.0 | 0.00 | 0.00 | 0.00 | 42 | 1006.9 |
| 20260505092800 | 58 | 198 | 3.0 | 8.0 | 0.00 | 0.00 | 0.00 | 42 | 1007.0 |
| 20260505092700 | 58 | 192 | 0.0 | 8.0 | 0.00 | 0.00 | 0.00 | 42 | 1007.0 |
| 20260505092600 | 58 | 241 | 3.0 | 8.0 | 0.00 | 0.00 | 0.00 | 42 | 1006.9 |
| 20260505092501 | 58 | 212 | 3.0 | 8.0 | 0.00 | 0.00 | 0.00 | 42 | 1006.9 |
| 20260505092301 | 58 | 190 | 2.0 | 8.0 | 0.00 | 0.00 | 0.00 | 42 | 1006.9 |
| 20260505092201 | 58 | 207 | 4.0 | 8.0 | 0.00 | 0.00 | 0.00 | 42 | 1006.9 |
| 20260505092100 | 58 | 231 | 8.0 | 8.0 | 0.00 | 0.00 | 0.00 | 42 | 1006.9 |
| 20260505092001 | 58 | 209 | 6.0 | 8.0 | 0.00 | 0.00 | 0.00 | 43 | 1006.9 |
| 20260505091859 | 58 | 189 | 3.0 | 8.0 | 0.00 | 0.00 | 0.00 | 43 | 1006.9 |
| 20260505091801 | 58 | 209 | 1.0 | 8.0 | 0.00 | 0.00 | 0.00 | 42 | 1006.9 |
| 20260505091700 | 58 | 224 | 3.0 | 8.0 | 0.00 | 0.00 | 0.00 | 42 | 1007.0 |
| 20260505091559 | 58 | 167 | 6.0 | 8.0 | 0.00 | 0.00 | 0.00 | 42 | 1006.9 |
| 20260505091402 | 58 | 217 | 0.0 | 8.0 | 0.00 | 0.00 | 0.00 | 43 | 1007.0 |
| 20260505091300 | 58 | 235 | 1.0 | 8.0 | 0.00 | 0.00 | 0.00 | 43 | 1007.0 |
| 20260505091201 | 58 | 213 | 1.0 | 8.0 | 0.00 | 0.00 | 0.00 | 42 | 1006.9 |
| 20260505091059 | 58 | 160 | 4.0 | 8.0 | 0.00 | 0.00 | 0.00 | 42 | 1007.0 |
| 20260505091001 | 58 | 229 | 4.0 | 8.0 | 0.00 | 0.00 | 0.00 | 42 | 1007.0 |
| 20260505090900 | 58 | 202 | 2.0 | 8.0 | 0.00 | 0.00 | 0.00 | 42 | 1007.0 |
| 20260505090800 | 58 | 245 | 3.0 | 8.0 | 0.00 | 0.00 | 0.00 | 42 | 1007.0 |
| 20260505090700 | 58 | 250 | 2.0 | 8.0 | 0.00 | 0.00 | 0.00 | 42 | 1007.0 |
| 20260505090600 | 58 | 195 | 6.0 | 8.0 | 0.00 | 0.00 | 0.00 | 43 | 1007.0 |
| 20260505090502 | 58 | 212 | 2.0 | 8.0 | 0.00 | 0.00 | 0.00 | 42 | 1007.0 |
| 20260505090359 | 58 | 225 | 7.0 | 8.0 | 0.00 | 0.00 | 0.00 | 43 | 1007.0 |
| 20260505090301 | 58 | 153 | 1.0 | 8.0 | 0.00 | 0.00 | 0.00 | 42 | 1007.0 |
| 20260505090003 | 58 | 215 | 1.0 | 8.0 | 0.00 | 0.00 | 0.00 | 42 | 1007.0 |
| 20260505085859 | 58 | 201 | 4.0 | 8.0 | 0.00 | 0.00 | 0.00 | 42 | 1007.0 |
| 20260505085800 | 58 | 156 | 4.0 | 8.0 | 0.00 | 0.00 | 0.00 | 42 | 1007.0 |
| 20260505085700 | 58 | 288 | 2.0 | 8.0 | 0.00 | 0.00 | 0.00 | 42 | 1006.9 |
| 20260505085600 | 58 | 264 | 3.0 | 8.0 | 0.00 | 0.00 | 0.00 | 42 | 1006.9 |
| 20260505085500 | 58 | 173 | 4.0 | 8.0 | 0.00 | 0.00 | 0.00 | 42 | 1006.9 |
| 20260505085400 | 58 | 250 | 6.0 | 8.0 | 0.00 | 0.00 | 0.00 | 43 | 1006.9 |
| 20260505085301 | 58 | 205 | 6.0 | 8.0 | 0.00 | 0.00 | 0.00 | 43 | 1006.9 |
| 20260505085200 | 58 | 188 | 2.0 | 7.0 | 0.00 | 0.00 | 0.00 | 42 | 1006.9 |
| 20260505085100 | 58 | 295 | 1.0 | 7.0 | 0.00 | 0.00 | 0.00 | 42 | 1006.9 |
| 20260505084900 | 58 | 210 | 0.0 | 7.0 | 0.00 | 0.00 | 0.00 | 42 | 1006.9 |
| 20260505084600 | 58 | 248 | 1.0 | 8.0 | 0.00 | 0.00 | 0.00 | 42 | 1006.9 |
| 20260505084501 | 58 | 213 | 0.0 | 9.0 | 0.00 | 0.00 | 0.00 | 42 | 1006.9 |
| 20260505084400 | 58 | 212 | 0.0 | 9.0 | 0.00 | 0.00 | 0.00 | 42 | 1006.8 |
| 20260505084300 | 58 | 168 | 1.0 | 9.0 | 0.00 | 0.00 | 0.00 | 42 | 1006.9 |
| 20260505084201 | 58 | 292 | 3.0 | 9.0 | 0.00 | 0.00 | 0.00 | 41 | 1006.9 |
| 20260505084059 | 58 | 234 | 2.0 | 9.0 | 0.00 | 0.00 | 0.00 | 41 | 1006.9 |
| 20260505084002 | 58 | 247 | 3.0 | 9.0 | 0.00 | 0.00 | 0.00 | 41 | 1006.9 |
| 20260505083900 | 58 | 240 | 5.0 | 9.0 | 0.00 | 0.00 | 0.00 | 40 | 1007.0 |
| 20260505083801 | 58 | 193 | 3.0 | 9.0 | 0.00 | 0.00 | 0.00 | 42 | 1006.9 |
| 20260505083600 | 58 | 183 | 2.0 | 6.0 | 0.00 | 0.00 | 0.00 | 43 | 1006.9 |
| 20260505083502 | 58 | 224 | 4.0 | 6.0 | 0.00 | 0.00 | 0.00 | 42 | 1007.0 |
| 20260505083400 | 58 | 274 | 0.0 | 8.0 | 0.00 | 0.00 | 0.00 | 42 | 1006.9 |
| 20260505083259 | 58 | 221 | 0.0 | 8.0 | 0.00 | 0.00 | 0.00 | 42 | 1006.9 |
| 20260505083201 | 58 | 221 | 1.0 | 8.0 | 0.00 | 0.00 | 0.00 | 41 | 1007.0 |
| 20260505083000 | 58 | 171 | 2.0 | 8.0 | 0.00 | 0.00 | 0.00 | 41 | 1006.9 |
| 20260505082900 | 58 | 232 | 2.0 | 8.0 | 0.00 | 0.00 | 0.00 | 41 | 1006.9 |
| 20260505082600 | 58 | 163 | 7.0 | 7.0 | 0.00 | 0.00 | 0.00 | 41 | 1007.0 |
| 20260505082500 | 58 | 217 | 3.0 | 7.0 | 0.00 | 0.00 | 0.00 | 40 | 1007.0 |
| 20260505082400 | 58 | 205 | 4.0 | 7.0 | 0.00 | 0.00 | 0.00 | 40 | 1006.9 |
| 20260505082300 | 58 | 184 | 2.0 | 7.0 | 0.00 | 0.00 | 0.00 | 40 | 1007.0 |
| 20260505082200 | 58 | 231 | 3.0 | 7.0 | 0.00 | 0.00 | 0.00 | 40 | 1007.0 |
| 20260505081900 | 58 | 197 | 1.0 | 7.0 | 0.00 | 0.00 | 0.00 | 40 | 1007.0 |
| 20260505081759 | 58 | 184 | 3.0 | 7.0 | 0.00 | 0.00 | 0.00 | 40 | 1007.0 |
| 20260505081659 | 58 | 186 | 2.0 | 9.0 | 0.00 | 0.00 | 0.00 | 40 | 1007.0 |
| 20260505081600 | 58 | 157 | 4.0 | 9.0 | 0.00 | 0.00 | 0.00 | 40 | 1007.1 |
| 20260505081500 | 58 | 137 | 2.0 | 9.0 | 0.00 | 0.00 | 0.00 | 40 | 1007.0 |
| 20260505081402 | 58 | 102 | 3.0 | 9.0 | 0.00 | 0.00 | 0.00 | 40 | 1007.1 |
| 20260505081300 | 58 | 182 | 2.0 | 9.0 | 0.00 | 0.00 | 0.00 | 40 | 1007.1 |
| 20260505081200 | 58 | 192 | 2.0 | 9.0 | 0.00 | 0.00 | 0.00 | 40 | 1007.1 |
| 20260505081100 | 58 | 159 | 3.0 | 9.0 | 0.00 | 0.00 | 0.00 | 40 | 1007.1 |
| 20260505081001 | 58 | 256 | 4.0 | 9.0 | 0.00 | 0.00 | 0.00 | 40 | 1007.2 |
| 20260505080900 | 58 | 219 | 6.0 | 9.0 | 0.00 | 0.00 | 0.00 | 40 | 1007.2 |
| 20260505080801 | 58 | 208 | 5.0 | 9.0 | 0.00 | 0.00 | 0.00 | 40 | 1007.2 |
| 20260505080700 | 58 | 188 | 9.0 | 10.0 | 0.00 | 0.00 | 0.00 | 40 | 1007.2 |
| 20260505080601 | 58 | 157 | 6.0 | 10.0 | 0.00 | 0.00 | 0.00 | 40 | 1007.3 |
| 20260505080500 | 58 | 153 | 5.0 | 9.0 | 0.00 | 0.00 | 0.00 | 41 | 1007.2 |
| 20260505080400 | 58 | 40 | 1.0 | 9.0 | 0.00 | 0.00 | 0.00 | 41 | 1007.3 |
| 20260505080259 | 58 | 156 | 3.0 | 9.0 | 0.00 | 0.00 | 0.00 | 41 | 1007.3 |
| 20260505080200 | 58 | 165 | 4.0 | 9.0 | 0.00 | 0.00 | 0.00 | 41 | 1007.3 |
| 20260505080059 | 58 | 128 | 3.0 | 7.0 | 0.00 | 0.00 | 0.00 | 41 | 1007.2 |
| 20260505080003 | 58 | 148 | 3.0 | 7.0 | 0.00 | 0.00 | 0.00 | 41 | 1007.2 |
| 20260505075859 | 58 | 190 | 4.0 | 8.0 | 0.00 | 0.00 | 0.00 | 41 | 1007.3 |
| 20260505075800 | 58 | 88 | 3.0 | 10.0 | 0.00 | 0.00 | 0.00 | 41 | 1007.3 |
| 20260505075700 | 58 | 184 | 3.0 | 10.0 | 0.00 | 0.00 | 0.00 | 42 | 1007.3 |
| 20260505075600 | 58 | 188 | 2.0 | 10.0 | 0.00 | 0.00 | 0.00 | 41 | 1007.4 |
| 20260505075500 | 58 | 123 | 2.0 | 10.0 | 0.00 | 0.00 | 0.00 | 41 | 1007.3 |
| 20260505075359 | 58 | 226 | 0.0 | 10.0 | 0.00 | 0.00 | 0.00 | 41 | 1007.4 |
| 20260505075300 | 58 | 229 | 2.0 | 10.0 | 0.00 | 0.00 | 0.00 | 41 | 1007.4 |
| 20260505075159 | 58 | 175 | 3.0 | 10.0 | 0.00 | 0.00 | 0.00 | 41 | 1007.4 |
| 20260505075059 | 58 | 170 | 0.0 | 10.0 | 0.00 | 0.00 | 0.00 | 41 | 1007.4 |
| 20260505075001 | 58 | 146 | 2.0 | 10.0 | 0.00 | 0.00 | 0.00 | 41 | 1007.5 |
| 20260505074900 | 58 | 196 | 2.0 | 11.0 | 0.00 | 0.00 | 0.00 | 41 | 1007.4 |
| 20260505074759 | 58 | 159 | 4.0 | 11.0 | 0.00 | 0.00 | 0.00 | 41 | 1007.4 |
| 20260505074701 | 58 | 155 | 8.0 | 12.0 | 0.00 | 0.00 | 0.00 | 42 | 1007.4 |
| 20260505074600 | 58 | 168 | 5.0 | 12.0 | 0.00 | 0.00 | 0.00 | 42 | 1007.4 |
| 20260505074500 | 58 | 146 | 1.0 | 11.0 | 0.00 | 0.00 | 0.00 | 43 | 1007.4 |
| 20260505074359 | 58 | 222 | 4.0 | 11.0 | 0.00 | 0.00 | 0.00 | 43 | 1007.4 |
| 20260505074259 | 58 | 229 | 4.0 | 11.0 | 0.00 | 0.00 | 0.00 | 43 | 1007.4 |
| 20260505074159 | 58 | 134 | 2.0 | 11.0 | 0.00 | 0.00 | 0.00 | 43 | 1007.5 |
| 20260505074101 | 58 | 166 | 9.0 | 11.0 | 0.00 | 0.00 | 0.00 | 43 | 1007.4 |
| 20260505074000 | 58 | 317 | 3.0 | 10.0 | 0.00 | 0.00 | 0.00 | 45 | 1007.5 |
| 20260505073800 | 58 | 102 | 3.0 | 9.0 | 0.00 | 0.00 | 0.00 | 45 | 1007.5 |
| 20260505073700 | 58 | 174 | 2.0 | 9.0 | 0.00 | 0.00 | 0.00 | 45 | 1007.6 |
| 20260505073559 | 58 | 196 | 4.0 | 9.0 | 0.00 | 0.00 | 0.00 | 45 | 1007.5 |
| 20260505073459 | 58 | 150 | 8.0 | 8.0 | 0.00 | 0.00 | 0.00 | 46 | 1007.6 |
| 20260505073402 | 57 | 204 | 2.0 | 8.0 | 0.00 | 0.00 | 0.00 | 46 | 1007.6 |
| 20260505073259 | 57 | 211 | 5.0 | 8.0 | 0.00 | 0.00 | 0.00 | 46 | 1007.6 |
| 20260505073200 | 57 | 192 | 3.0 | 9.0 | 0.00 | 0.00 | 0.00 | 46 | 1007.6 |
| 20260505073100 | 57 | 176 | 3.0 | 9.0 | 0.00 | 0.00 | 0.00 | 46 | 1007.6 |
| 20260505073000 | 57 | 139 | 1.0 | 9.0 | 0.00 | 0.00 | 0.00 | 46 | 1007.7 |
| 20260505072901 | 57 | 120 | 3.0 | 9.0 | 0.00 | 0.00 | 0.00 | 47 | 1007.6 |
| 20260505072800 | 57 | 163 | 1.0 | 9.0 | 0.00 | 0.00 | 0.00 | 47 | 1007.6 |
| 20260505072659 | 57 | 163 | 1.0 | 9.0 | 0.00 | 0.00 | 0.00 | 47 | 1007.6 |
| 20260505072501 | 57 | 256 | 7.0 | 9.0 | 0.00 | 0.00 | 0.00 | 47 | 1007.6 |
| 20260505072300 | 57 | 188 | 5.0 | 6.0 | 0.00 | 0.00 | 0.00 | 47 | 1007.8 |
| 20260505072200 | 57 | 123 | 3.0 | 4.0 | 0.00 | 0.00 | 0.00 | 48 | 1007.7 |
| 20260505072059 | 57 | 180 | 2.0 | 4.0 | 0.00 | 0.00 | 0.00 | 48 | 1007.7 |
| 20260505071959 | 57 | 222 | 1.0 | 4.0 | 0.00 | 0.00 | 0.00 | 48 | 1007.7 |
| 20260505071800 | 57 | 130 | 1.0 | 5.0 | 0.00 | 0.00 | 0.00 | 47 | 1007.7 |
| 20260505071600 | 57 | 220 | 4.0 | 7.0 | 0.00 | 0.00 | 0.00 | 48 | 1007.7 |
| 20260505071300 | 58 | 142 | 2.0 | 7.0 | 0.00 | 0.00 | 0.00 | 47 | 1007.7 |
| 20260505071200 | 58 | 205 | 3.0 | 7.0 | 0.00 | 0.00 | 0.00 | 48 | 1007.7 |
| 20260505071059 | 58 | 146 | 3.0 | 9.0 | 0.00 | 0.00 | 0.00 | 47 | 1007.7 |
| 20260505070959 | 58 | 179 | 2.0 | 9.0 | 0.00 | 0.00 | 0.00 | 47 | 1007.7 |
| 20260505070900 | 58 | 86 | 1.0 | 9.0 | 0.00 | 0.00 | 0.00 | 47 | 1007.7 |
| 20260505070800 | 58 | 186 | 7.0 | 9.0 | 0.00 | 0.00 | 0.00 | 47 | 1007.7 |
| 20260505070659 | 58 | 238 | 3.0 | 9.0 | 0.00 | 0.00 | 0.00 | 47 | 1007.7 |
| 20260505070559 | 58 | 106 | 0.0 | 9.0 | 0.00 | 0.00 | 0.00 | 47 | 1007.7 |
| 20260505070501 | 58 | 172 | 1.0 | 9.0 | 0.00 | 0.00 | 0.00 | 47 | 1007.7 |
| 20260505070400 | 58 | 138 | 2.0 | 9.0 | 0.00 | 0.00 | 0.00 | 47 | 1007.7 |
| 20260505070259 | 58 | 208 | 6.0 | 9.0 | 0.00 | 0.00 | 0.00 | 47 | 1007.7 |
| 20260505070200 | 58 | 163 | 7.0 | 8.0 | 0.00 | 0.00 | 0.00 | 47 | 1007.7 |
| 20260505070059 | 58 | 169 | 7.0 | 9.0 | 0.00 | 0.00 | 0.00 | 47 | 1007.7 |
| 20260505070002 | 58 | 217 | 6.0 | 9.0 | 0.00 | 0.00 | 0.00 | 47 | 1007.7 |
| 20260505065859 | 58 | 186 | 3.0 | 9.0 | 0.00 | 0.00 | 0.00 | 47 | 1007.7 |
| 20260505065800 | 58 | 90 | 3.0 | 9.0 | 0.00 | 0.00 | 0.00 | 47 | 1007.7 |
| 20260505065659 | 58 | 120 | 1.0 | 9.0 | 0.00 | 0.00 | 0.00 | 47 | 1007.8 |
| 20260505065559 | 58 | 192 | 7.0 | 9.0 | 0.00 | 0.00 | 0.00 | 48 | 1007.8 |
| 20260505065459 | 58 | 121 | 3.0 | 7.0 | 0.00 | 0.00 | 0.00 | 48 | 1007.8 |
| 20260505065359 | 58 | 229 | 3.0 | 7.0 | 0.00 | 0.00 | 0.00 | 48 | 1007.8 |
| 20260505065300 | 58 | 144 | 3.0 | 7.0 | 0.00 | 0.00 | 0.00 | 48 | 1007.8 |
| 20260505065159 | 58 | 161 | 0.0 | 10.0 | 0.00 | 0.00 | 0.00 | 48 | 1007.9 |
| 20260505064959 | 58 | 147 | 1.0 | 10.0 | 0.00 | 0.00 | 0.00 | 48 | 1007.9 |
| 20260505064900 | 58 | 165 | 3.0 | 10.0 | 0.00 | 0.00 | 0.00 | 47 | 1007.9 |
| 20260505064800 | 58 | 142 | 6.0 | 10.0 | 0.00 | 0.00 | 0.00 | 47 | 1007.9 |
| 20260505064659 | 58 | 175 | 1.0 | 10.0 | 0.00 | 0.00 | 0.00 | 48 | 1007.9 |
| 20260505064559 | 58 | 210 | 4.0 | 10.0 | 0.00 | 0.00 | 0.00 | 47 | 1007.9 |
| 20260505064159 | 58 | 138 | 1.0 | 7.0 | 0.00 | 0.00 | 0.00 | 47 | 1007.9 |
| 20260505064059 | 59 | 148 | 5.0 | 7.0 | 0.00 | 0.00 | 0.00 | 47 | 1007.8 |
| 20260505063959 | 59 | 178 | 1.0 | 8.0 | 0.00 | 0.00 | 0.00 | 46 | 1007.9 |
| 20260505063859 | 59 | 178 | 1.0 | 8.0 | 0.00 | 0.00 | 0.00 | 47 | 1007.9 |
| 20260505063759 | 59 | 98 | 3.0 | 8.0 | 0.00 | 0.00 | 0.00 | 46 | 1007.9 |
| 20260505063559 | 59 | 146 | 3.0 | 8.0 | 0.00 | 0.00 | 0.00 | 46 | 1007.9 |
| 20260505063500 | 59 | 190 | 2.0 | 8.0 | 0.00 | 0.00 | 0.00 | 46 | 1007.9 |
| 20260505063359 | 59 | 220 | 4.0 | 8.0 | 0.00 | 0.00 | 0.00 | 45 | 1007.8 |
| 20260505063302 | 59 | 194 | 4.0 | 8.0 | 0.00 | 0.00 | 0.00 | 45 | 1007.9 |
| 20260505063200 | 59 | 205 | 2.0 | 8.0 | 0.00 | 0.00 | 0.00 | 45 | 1007.9 |
| 20260505063101 | 59 | 190 | 3.0 | 8.0 | 0.00 | 0.00 | 0.00 | 44 | 1007.9 |
| 20260505063000 | 59 | 155 | 1.0 | 6.0 | 0.00 | 0.00 | 0.00 | 44 | 1007.8 |
| 20260505062859 | 59 | 142 | 5.0 | 6.0 | 0.00 | 0.00 | 0.00 | 44 | 1007.8 |
| 20260505062759 | 59 | 173 | 1.0 | 8.0 | 0.00 | 0.00 | 0.00 | 43 | 1007.8 |
| 20260505062559 | 59 | 190 | 2.0 | 8.0 | 0.00 | 0.00 | 0.00 | 43 | 1007.7 |
| 20260505062500 | 59 | 242 | 3.0 | 8.0 | 0.00 | 0.00 | 0.00 | 43 | 1007.7 |
| 20260505062359 | 59 | 220 | 2.0 | 8.0 | 0.00 | 0.00 | 0.00 | 43 | 1007.7 |
| 20260505062259 | 59 | 161 | 1.0 | 8.0 | 0.00 | 0.00 | 0.00 | 43 | 1007.7 |
| 20260505062200 | 59 | 216 | 2.0 | 8.0 | 0.00 | 0.00 | 0.00 | 42 | 1007.7 |
| 20260505062059 | 59 | 224 | 1.0 | 8.0 | 0.00 | 0.00 | 0.00 | 42 | 1007.7 |
| 20260505062000 | 59 | 171 | 2.0 | 8.0 | 0.00 | 0.00 | 0.00 | 42 | 1007.6 |
| 20260505061859 | 59 | 87 | 7.0 | 8.0 | 0.00 | 0.00 | 0.00 | 42 | 1007.7 |
| 20260505061800 | 59 | 150 | 4.0 | 8.0 | 0.00 | 0.00 | 0.00 | 41 | 1007.6 |
| 20260505061701 | 60 | 257 | 5.0 | 8.0 | 0.00 | 0.00 | 0.00 | 40 | 1007.7 |
| 20260505061600 | 60 | 214 | 1.0 | 8.0 | 0.00 | 0.00 | 0.00 | 41 | 1007.6 |
| 20260505061500 | 60 | 250 | 1.0 | 8.0 | 0.00 | 0.00 | 0.00 | 40 | 1007.6 |
| 20260505061359 | 60 | 118 | 3.0 | 8.0 | 0.00 | 0.00 | 0.00 | 39 | 1007.6 |
| 20260505061200 | 60 | 314 | 8.0 | 8.0 | 0.00 | 0.00 | 0.00 | 38 | 1007.5 |
| 20260505061059 | 60 | 203 | 0.0 | 4.0 | 0.00 | 0.00 | 0.00 | 38 | 1007.5 |
| 20260505060900 | 60 | 281 | 0.0 | 4.0 | 0.00 | 0.00 | 0.00 | 37 | 1007.4 |
| 20260505060659 | 60 | 266 | 1.0 | 4.0 | 0.00 | 0.00 | 0.00 | 38 | 1007.4 |
| 20260505060359 | 60 | 259 | 1.0 | 4.0 | 0.00 | 0.00 | 0.00 | 37 | 1007.3 |
| 20260505060259 | 60 | 286 | 1.0 | 4.0 | 0.00 | 0.00 | 0.00 | 36 | 1007.2 |
| 20260505060202 | 60 | 240 | 0.0 | 3.0 | 0.00 | 0.00 | 0.00 | 36 | 1007.2 |
| 20260505060004 | 60 | 269 | 2.0 | 3.0 | 0.00 | 0.00 | 0.00 | 37 | 1007.2 |
| 20260505055859 | 60 | 331 | 1.0 | 3.0 | 0.00 | 0.00 | 0.00 | 37 | 1007.1 |
| 20260505055759 | 60 | 317 | 1.0 | 3.0 | 0.00 | 0.00 | 0.00 | 37 | 1007.1 |
| 20260505055559 | 60 | 336 | 0.0 | 3.0 | 0.00 | 0.00 | 0.00 | 36 | 1007.1 |
| 20260505055500 | 60 | 284 | 2.0 | 3.0 | 0.00 | 0.00 | 0.00 | 36 | 1007.1 |
| 20260505055400 | 60 | 250 | 1.0 | 3.0 | 0.00 | 0.00 | 0.00 | 35 | 1007.1 |
| 20260505055259 | 60 | 232 | 0.0 | 3.0 | 0.00 | 0.00 | 0.00 | 35 | 1007.1 |
| 20260505055200 | 60 | 232 | 0.0 | 3.0 | 0.00 | 0.00 | 0.00 | 35 | 1007.1 |
| 20260505054959 | 60 | 276 | 0.0 | 3.0 | 0.00 | 0.00 | 0.00 | 35 | 1007.0 |
| 20260505054900 | 60 | 276 | 0.0 | 3.0 | 0.00 | 0.00 | 0.00 | 35 | 1007.0 |
| 20260505054759 | 60 | 268 | 0.0 | 3.0 | 0.00 | 0.00 | 0.00 | 35 | 1007.0 |
| 20260505054659 | 60 | 268 | 0.0 | 3.0 | 0.00 | 0.00 | 0.00 | 35 | 1007.0 |
| 20260505054601 | 60 | 268 | 0.0 | 3.0 | 0.00 | 0.00 | 0.00 | 35 | 1007.0 |
| 20260505054501 | 60 | 268 | 1.0 | 3.0 | 0.00 | 0.00 | 0.00 | 36 | 1007.0 |
| 20260505054400 | 60 | 233 | 2.0 | 3.0 | 0.00 | 0.00 | 0.00 | 35 | 1007.0 |
| 20260505054300 | 60 | 277 | 2.0 | 3.0 | 0.00 | 0.00 | 0.00 | 36 | 1007.0 |
| 20260505054200 | 60 | 306 | 1.0 | 5.0 | 0.00 | 0.00 | 0.00 | 35 | 1006.9 |
| 20260505054000 | 60 | 306 | 1.0 | 5.0 | 0.00 | 0.00 | 0.00 | 35 | 1006.9 |
| 20260505053800 | 60 | 306 | 0.0 | 5.0 | 0.00 | 0.00 | 0.00 | 35 | 1006.9 |
| 20260505053659 | 60 | 294 | 2.0 | 5.0 | 0.00 | 0.00 | 0.00 | 36 | 1006.9 |
| 20260505053600 | 60 | 223 | 1.0 | 5.0 | 0.00 | 0.00 | 0.00 | 35 | 1006.9 |
| 20260505053500 | 60 | 223 | 1.0 | 5.0 | 0.00 | 0.00 | 0.00 | 36 | 1006.8 |
| 20260505053400 | 60 | 229 | 1.0 | 5.0 | 0.00 | 0.00 | 0.00 | 36 | 1006.8 |
| 20260505053101 | 60 | 348 | 1.0 | 4.0 | 0.00 | 0.00 | 0.00 | 34 | 1006.9 |
| 20260505053000 | 61 | 355 | 0.0 | 4.0 | 0.00 | 0.00 | 0.00 | 35 | 1006.8 |
| 20260505052900 | 61 | 62 | 2.0 | 4.0 | 0.00 | 0.00 | 0.00 | 35 | 1006.8 |
| 20260505052800 | 61 | 255 | 2.0 | 4.0 | 0.00 | 0.00 | 0.00 | 36 | 1006.8 |
| 20260505052700 | 61 | 298 | 0.0 | 1.0 | 0.00 | 0.00 | 0.00 | 34 | 1006.8 |
| 20260505052600 | 61 | 298 | 0.0 | 1.0 | 0.00 | 0.00 | 0.00 | 35 | 1006.8 |
| 20260505052500 | 61 | 298 | 0.0 | 1.0 | 0.00 | 0.00 | 0.00 | 35 | 1006.8 |
| 20260505052359 | 61 | 298 | 1.0 | 2.0 | 0.00 | 0.00 | 0.00 | 35 | 1006.8 |
| 20260505052301 | 61 | 298 | 0.0 | 2.0 | 0.00 | 0.00 | 0.00 | 34 | 1006.8 |
| 20260505052200 | 61 | 298 | 0.0 | 3.0 | 0.00 | 0.00 | 0.00 | 34 | 1006.8 |
| 20260505052059 | 61 | 298 | 0.0 | 4.0 | 0.00 | 0.00 | 0.00 | 34 | 1006.8 |
| 20260505052000 | 61 | 298 | 0.0 | 4.0 | 0.00 | 0.00 | 0.00 | 35 | 1006.8 |
| 20260505051759 | 61 | 298 | 1.0 | 4.0 | 0.00 | 0.00 | 0.00 | 33 | 1006.8 |
| 20260505051659 | 61 | 298 | 1.0 | 4.0 | 0.00 | 0.00 | 0.00 | 33 | 1006.8 |
| 20260505051600 | 61 | 269 | 0.0 | 4.0 | 0.00 | 0.00 | 0.00 | 34 | 1006.8 |
| 20260505051502 | 61 | 279 | 1.0 | 4.0 | 0.00 | 0.00 | 0.00 | 33 | 1006.8 |
| 20260505051359 | 61 | 225 | 1.0 | 4.0 | 0.00 | 0.00 | 0.00 | 33 | 1006.8 |
| 20260505051300 | 61 | 202 | 1.0 | 4.0 | 0.00 | 0.00 | 0.00 | 34 | 1006.7 |
| 20260505051200 | 61 | 244 | 2.0 | 4.0 | 0.00 | 0.00 | 0.00 | 34 | 1006.8 |
| 20260505051059 | 61 | 256 | 0.0 | 4.0 | 0.00 | 0.00 | 0.00 | 33 | 1006.8 |
| 20260505051000 | 61 | 212 | 0.0 | 3.0 | 0.00 | 0.00 | 0.00 | 33 | 1006.8 |
| 20260505050900 | 61 | 146 | 0.0 | 3.0 | 0.00 | 0.00 | 0.00 | 33 | 1006.7 |
| 20260505050659 | 61 | 146 | 0.0 | 3.0 | 0.00 | 0.00 | 0.00 | 33 | 1006.7 |
| 20260505050600 | 61 | 142 | 1.0 | 3.0 | 0.00 | 0.00 | 0.00 | 33 | 1006.7 |
| 20260505050500 | 62 | 318 | 3.0 | 3.0 | 0.00 | 0.00 | 0.00 | 33 | 1006.8 |
| 20260505050300 | 62 | 189 | 2.0 | 5.0 | 0.00 | 0.00 | 0.00 | 33 | 1006.7 |
| 20260505050159 | 62 | 170 | 2.0 | 5.0 | 0.00 | 0.00 | 0.00 | 32 | 1006.7 |
| 20260505041700 | 62 | 355 | 2.0 | 5.0 | 0.00 | 0.00 | 0.00 | 28 | 1006.1 |
| 20260505041600 | 62 | 198 | 2.0 | 5.0 | 0.00 | 0.00 | 0.00 | 28 | 1006.1 |
| 20260505041500 | 62 | 170 | 1.0 | 5.0 | 0.00 | 0.00 | 0.00 | 29 | 1006.1 |
| 20260505041359 | 62 | 160 | 2.0 | 5.0 | 0.00 | 0.00 | 0.00 | 28 | 1006.1 |
| 20260505041301 | 62 | 164 | 2.0 | 5.0 | 0.00 | 0.00 | 0.00 | 28 | 1006.1 |
| 20260505041159 | 62 | 155 | 3.0 | 5.0 | 0.00 | 0.00 | 0.00 | 28 | 1006.1 |
| 20260505041100 | 62 | 126 | 1.0 | 5.0 | 0.00 | 0.00 | 0.00 | 29 | 1006.0 |
| 20260505041000 | 62 | 123 | 1.0 | 5.0 | 0.00 | 0.00 | 0.00 | 29 | 1006.0 |
| 20260505040900 | 62 | 142 | 3.0 | 5.0 | 0.00 | 0.00 | 0.00 | 28 | 1006.0 |
| 20260505040759 | 62 | 125 | 3.0 | 5.0 | 0.00 | 0.00 | 0.00 | 28 | 1006.0 |
| 20260505040700 | 62 | 175 | 3.0 | 5.0 | 0.00 | 0.00 | 0.00 | 29 | 1005.9 |
| 20260505040600 | 62 | 196 | 1.0 | 4.0 | 0.00 | 0.00 | 0.00 | 28 | 1006.0 |
| 20260505040500 | 62 | 224 | 1.0 | 4.0 | 0.00 | 0.00 | 0.00 | 29 | 1005.9 |
| 20260505040301 | 62 | 148 | 2.0 | 4.0 | 0.00 | 0.00 | 0.00 | 28 | 1005.8 |
| 20260505040159 | 62 | 72 | 1.0 | 4.0 | 0.00 | 0.00 | 0.00 | 29 | 1005.8 |
| 20260505040004 | 62 | 76 | 2.0 | 4.0 | 0.00 | 0.00 | 0.00 | 27 | 1005.8 |
| 20260505035759 | 63 | 78 | 1.0 | 2.0 | 0.00 | 0.00 | 0.00 | 27 | 1005.7 |
| 20260505035659 | 63 | 69 | 1.0 | 2.0 | 0.00 | 0.00 | 0.00 | 27 | 1005.7 |
| 20260505035600 | 63 | 63 | 1.0 | 3.0 | 0.00 | 0.00 | 0.00 | 28 | 1005.7 |
| 20260505035400 | 63 | 63 | 1.0 | 3.0 | 0.00 | 0.00 | 0.00 | 28 | 1005.7 |
| 20260505035300 | 63 | 63 | 0.0 | 3.0 | 0.00 | 0.00 | 0.00 | 27 | 1005.7 |
| 20260505035159 | 63 | 63 | 0.0 | 3.0 | 0.00 | 0.00 | 0.00 | 28 | 1005.7 |
| 20260505035100 | 63 | 63 | 1.0 | 3.0 | 0.00 | 0.00 | 0.00 | 28 | 1005.7 |
| 20260505035001 | 63 | 101 | 1.0 | 3.0 | 0.00 | 0.00 | 0.00 | 29 | 1005.7 |
| 20260505034901 | 63 | 101 | 0.0 | 3.0 | 0.00 | 0.00 | 0.00 | 28 | 1005.6 |
| 20260505034800 | 63 | 77 | 1.0 | 3.0 | 0.00 | 0.00 | 0.00 | 28 | 1005.7 |
| 20260505034700 | 63 | 76 | 2.0 | 3.0 | 0.00 | 0.00 | 0.00 | 27 | 1005.6 |
| 20260505034601 | 63 | 55 | 1.0 | 3.0 | 0.00 | 0.00 | 0.00 | 27 | 1005.6 |
| 20260505034259 | 63 | 95 | 0.0 | 3.0 | 0.00 | 0.00 | 0.00 | 27 | 1005.6 |
| 20260505034159 | 63 | 107 | 1.0 | 2.0 | 0.00 | 0.00 | 0.00 | 27 | 1005.6 |
| 20260505033959 | 63 | 107 | 1.0 | 2.0 | 0.00 | 0.00 | 0.00 | 28 | 1005.6 |
| 20260505033859 | 63 | 107 | 1.0 | 2.0 | 0.00 | 0.00 | 0.00 | 28 | 1005.6 |
| 20260505033800 | 64 | 107 | 1.0 | 2.0 | 0.00 | 0.00 | 0.00 | 27 | 1005.6 |
| 20260505033559 | 64 | 96 | 1.0 | 2.0 | 0.00 | 0.00 | 0.00 | 27 | 1005.6 |
| 20260505033459 | 64 | 55 | 0.0 | 2.0 | 0.00 | 0.00 | 0.00 | 27 | 1005.5 |
| 20260505033400 | 64 | 55 | 0.0 | 2.0 | 0.00 | 0.00 | 0.00 | 27 | 1005.5 |
| 20260505033200 | 64 | 55 | 0.0 | 4.0 | 0.00 | 0.00 | 0.00 | 27 | 1005.5 |
| 20260505033059 | 64 | 55 | 0.0 | 4.0 | 0.00 | 0.00 | 0.00 | 27 | 1005.5 |
| 20260505033000 | 64 | 55 | 1.0 | 4.0 | 0.00 | 0.00 | 0.00 | 28 | 1005.4 |
| 20260505032859 | 64 | 55 | 0.0 | 4.0 | 0.00 | 0.00 | 0.00 | 28 | 1005.4 |
| 20260505032759 | 64 | 55 | 0.0 | 4.0 | 0.00 | 0.00 | 0.00 | 27 | 1005.4 |
| 20260505032659 | 64 | 55 | 0.0 | 4.0 | 0.00 | 0.00 | 0.00 | 27 | 1005.4 |
| 20260505032600 | 64 | 55 | 0.0 | 4.0 | 0.00 | 0.00 | 0.00 | 26 | 1005.4 |
| 20260505032459 | 64 | 55 | 1.0 | 4.0 | 0.00 | 0.00 | 0.00 | 27 | 1005.4 |
| 20260505032359 | 63 | 55 | 1.0 | 4.0 | 0.00 | 0.00 | 0.00 | 28 | 1005.4 |
| 20260505032300 | 63 | 44 | 4.0 | 4.0 | 0.00 | 0.00 | 0.00 | 28 | 1005.4 |
| 20260505032159 | 63 | 46 | 1.0 | 4.0 | 0.00 | 0.00 | 0.00 | 27 | 1005.4 |
| 20260505032059 | 63 | 47 | 1.0 | 4.0 | 0.00 | 0.00 | 0.00 | 27 | 1005.4 |
| 20260505032000 | 63 | 85 | 2.0 | 4.0 | 0.00 | 0.00 | 0.00 | 27 | 1005.3 |
| 20260505031900 | 63 | 38 | 3.0 | 3.0 | 0.00 | 0.00 | 0.00 | 27 | 1005.3 |
| 20260505031759 | 63 | 71 | 1.0 | 3.0 | 0.00 | 0.00 | 0.00 | 27 | 1005.3 |
| 20260505031700 | 63 | 86 | 2.0 | 3.0 | 0.00 | 0.00 | 0.00 | 28 | 1005.3 |
| 20260505031559 | 63 | 69 | 1.0 | 3.0 | 0.00 | 0.00 | 0.00 | 28 | 1005.3 |
| 20260505031501 | 63 | 68 | 0.0 | 3.0 | 0.00 | 0.00 | 0.00 | 27 | 1005.3 |
| 20260505031359 | 63 | 68 | 0.0 | 3.0 | 0.00 | 0.00 | 0.00 | 28 | 1005.3 |
| 20260505031300 | 63 | 55 | 1.0 | 3.0 | 0.00 | 0.00 | 0.00 | 28 | 1005.3 |
| 20260505031200 | 63 | 55 | 1.0 | 3.0 | 0.00 | 0.00 | 0.00 | 28 | 1005.3 |
| 20260505031100 | 63 | 56 | 1.0 | 3.0 | 0.00 | 0.00 | 0.00 | 27 | 1005.3 |
| 20260505030959 | 63 | 57 | 2.0 | 3.0 | 0.00 | 0.00 | 0.00 | 27 | 1005.3 |
| 20260505030800 | 63 | 61 | 0.0 | 3.0 | 0.00 | 0.00 | 0.00 | 27 | 1005.2 |
| 20260505030659 | 63 | 52 | 2.0 | 3.0 | 0.00 | 0.00 | 0.00 | 27 | 1005.2 |
| 20260505030600 | 63 | 49 | 1.0 | 3.0 | 0.00 | 0.00 | 0.00 | 27 | 1005.2 |
| 20260505030500 | 63 | 61 | 1.0 | 3.0 | 0.00 | 0.00 | 0.00 | 28 | 1005.2 |
| 20260505030359 | 63 | 51 | 1.0 | 3.0 | 0.00 | 0.00 | 0.00 | 28 | 1005.2 |
| 20260505030259 | 64 | 57 | 0.0 | 3.0 | 0.00 | 0.00 | 0.00 | 28 | 1005.2 |
| 20260505030201 | 64 | 39 | 1.0 | 3.0 | 0.00 | 0.00 | 0.00 | 28 | 1005.2 |
| 20260505030059 | 64 | 55 | 1.0 | 3.0 | 0.00 | 0.00 | 0.00 | 28 | 1005.2 |
| 20260505025901 | 64 | 79 | 2.0 | 2.0 | 0.00 | 0.00 | 0.00 | 28 | 1005.1 |
| 20260505025759 | 64 | 79 | 1.0 | 2.0 | 0.00 | 0.00 | 0.00 | 27 | 1005.1 |
| 20260505025600 | 64 | 79 | 1.0 | 2.0 | 0.00 | 0.00 | 0.00 | 27 | 1005.1 |
| 20260505025359 | 64 | 69 | 1.0 | 2.0 | 0.00 | 0.00 | 0.00 | 27 | 1005.1 |
| 20260505025259 | 64 | 69 | 1.0 | 3.0 | 0.00 | 0.00 | 0.00 | 28 | 1005.1 |
| 20260505025200 | 64 | 69 | 1.0 | 3.0 | 0.00 | 0.00 | 0.00 | 27 | 1005.1 |
| 20260505025100 | 65 | 69 | 1.0 | 3.0 | 0.00 | 0.00 | 0.00 | 27 | 1005.1 |
| 20260505025000 | 65 | 69 | 2.0 | 3.0 | 0.00 | 0.00 | 0.00 | 27 | 1005.1 |
| 20260505024900 | 65 | 69 | 1.0 | 3.0 | 0.00 | 0.00 | 0.00 | 27 | 1005.1 |
| 20260505024800 | 65 | 69 | 0.0 | 3.0 | 0.00 | 0.00 | 0.00 | 27 | 1005.1 |
| 20260505024659 | 65 | 69 | 1.0 | 3.0 | 0.00 | 0.00 | 0.00 | 26 | 1005.1 |
| 20260505024559 | 65 | 69 | 1.0 | 3.0 | 0.00 | 0.00 | 0.00 | 26 | 1005.1 |
| 20260505024500 | 65 | 73 | 2.0 | 3.0 | 0.00 | 0.00 | 0.00 | 26 | 1005.1 |
| 20260505024400 | 65 | 80 | 1.0 | 2.0 | 0.00 | 0.00 | 0.00 | 26 | 1005.1 |
| 20260505024300 | 65 | 80 | 1.0 | 3.0 | 0.00 | 0.00 | 0.00 | 26 | 1005.1 |
| 20260505024159 | 65 | 78 | 2.0 | 3.0 | 0.00 | 0.00 | 0.00 | 26 | 1005.1 |
| 20260505024100 | 65 | 84 | 2.0 | 3.0 | 0.00 | 0.00 | 0.00 | 25 | 1005.1 |
| 20260505023858 | 66 | 84 | 0.0 | 3.0 | 0.00 | 0.00 | 0.00 | 26 | 1005.0 |
| 20260505023800 | 66 | 81 | 0.0 | 3.0 | 0.00 | 0.00 | 0.00 | 25 | 1005.0 |
| 20260505023501 | 66 | 57 | 1.0 | 3.0 | 0.00 | 0.00 | 0.00 | 25 | 1005.0 |
| 20260505023259 | 66 | 125 | 0.0 | 2.0 | 0.00 | 0.00 | 0.00 | 24 | 1005.0 |
| 20260505023200 | 66 | 125 | 1.0 | 2.0 | 0.00 | 0.00 | 0.00 | 24 | 1005.0 |
| 20260505023100 | 66 | 125 | 1.0 | 4.0 | 0.00 | 0.00 | 0.00 | 24 | 1005.0 |
| 20260505023001 | 66 | 144 | 1.0 | 4.0 | 0.00 | 0.00 | 0.00 | 24 | 1004.9 |
| 20260505022900 | 66 | 154 | 0.0 | 4.0 | 0.00 | 0.00 | 0.00 | 23 | 1004.9 |
| 20260505022800 | 66 | 154 | 0.0 | 4.0 | 0.00 | 0.00 | 0.00 | 23 | 1005.0 |
| 20260505022659 | 66 | 154 | 0.0 | 4.0 | 0.00 | 0.00 | 0.00 | 23 | 1004.9 |
| 20260505022401 | 66 | 171 | 0.0 | 4.0 | 0.00 | 0.00 | 0.00 | 23 | 1004.9 |
| 20260505022300 | 66 | 171 | 0.0 | 4.0 | 0.00 | 0.00 | 0.00 | 23 | 1004.8 |
| 20260505022200 | 66 | 146 | 2.0 | 4.0 | 0.00 | 0.00 | 0.00 | 23 | 1004.9 |
| 20260505022100 | 67 | 162 | 1.0 | 4.0 | 0.00 | 0.00 | 0.00 | 23 | 1004.8 |
| 20260505022000 | 67 | 225 | 2.0 | 4.0 | 0.00 | 0.00 | 0.00 | 24 | 1004.8 |
| 20260505021901 | 67 | 167 | 4.0 | 4.0 | 0.00 | 0.00 | 0.00 | 24 | 1004.9 |
| 20260505021800 | 67 | 190 | 1.0 | 4.0 | 0.00 | 0.00 | 0.00 | 23 | 1004.8 |
| 20260505021659 | 67 | 143 | 2.0 | 4.0 | 0.00 | 0.00 | 0.00 | 23 | 1004.9 |
| 20260505021600 | 67 | 216 | 1.0 | 4.0 | 0.00 | 0.00 | 0.00 | 23 | 1004.8 |
| 20260505021501 | 67 | 252 | 2.0 | 4.0 | 0.00 | 0.00 | 0.00 | 23 | 1004.8 |
| 20260505021401 | 67 | 161 | 0.0 | 4.0 | 0.00 | 0.00 | 0.00 | 23 | 1004.8 |
| 20260505021259 | 67 | 154 | 1.0 | 6.0 | 0.00 | 0.00 | 0.00 | 22 | 1004.9 |
| 20260505021200 | 67 | 190 | 1.0 | 6.0 | 0.00 | 0.00 | 0.00 | 23 | 1004.8 |
| 20260505021100 | 67 | 191 | 0.0 | 6.0 | 0.00 | 0.00 | 0.00 | 23 | 1004.8 |
| 20260505020859 | 67 | 134 | 1.0 | 6.0 | 0.00 | 0.00 | 0.00 | 22 | 1004.8 |
| 20260505020800 | 67 | 175 | 1.0 | 6.0 | 0.00 | 0.00 | 0.00 | 22 | 1004.8 |
| 20260505020700 | 67 | 165 | 1.0 | 6.0 | 0.00 | 0.00 | 0.00 | 22 | 1004.7 |
| 20260505020559 | 67 | 198 | 0.0 | 6.0 | 0.00 | 0.00 | 0.00 | 22 | 1004.7 |
| 20260505020459 | 68 | 180 | 4.0 | 6.0 | 0.00 | 0.00 | 0.00 | 23 | 1004.7 |
| 20260505020259 | 68 | 161 | 0.0 | 4.0 | 0.00 | 0.00 | 0.00 | 23 | 1004.7 |
| 20260505020002 | 68 | 209 | 2.0 | 4.0 | 0.00 | 0.00 | 0.00 | 22 | 1004.7 |
| 20260505015900 | 68 | 176 | 0.0 | 4.0 | 0.00 | 0.00 | 0.00 | 22 | 1004.7 |
| 20260505015801 | 68 | 229 | 3.0 | 4.0 | 0.00 | 0.00 | 0.00 | 21 | 1004.7 |
| 20260505015659 | 68 | 182 | 2.0 | 4.0 | 0.00 | 0.00 | 0.00 | 23 | 1004.7 |
| 20260505015559 | 68 | 184 | 2.0 | 4.0 | 0.00 | 0.00 | 0.00 | 23 | 1004.7 |
| 20260505015500 | 68 | 227 | 0.0 | 4.0 | 0.00 | 0.00 | 0.00 | 22 | 1004.7 |
| 20260505015300 | 68 | 192 | 3.0 | 4.0 | 0.00 | 0.00 | 0.00 | 22 | 1004.7 |
| 20260505015159 | 68 | 182 | 1.0 | 4.0 | 0.00 | 0.00 | 0.00 | 22 | 1004.7 |
| 20260505015059 | 68 | 192 | 2.0 | 4.0 | 0.00 | 0.00 | 0.00 | 22 | 1004.6 |
| 20260505014959 | 68 | 189 | 1.0 | 5.0 | 0.00 | 0.00 | 0.00 | 21 | 1004.6 |
| 20260505014900 | 68 | 219 | 1.0 | 5.0 | 0.00 | 0.00 | 0.00 | 22 | 1004.7 |
| 20260505014659 | 68 | 144 | 3.0 | 5.0 | 0.00 | 0.00 | 0.00 | 21 | 1004.6 |
| 20260505014600 | 68 | 267 | 2.0 | 5.0 | 0.00 | 0.00 | 0.00 | 22 | 1004.6 |
| 20260505014500 | 68 | 172 | 3.0 | 5.0 | 0.00 | 0.00 | 0.00 | 22 | 1004.6 |
| 20260505014400 | 68 | 234 | 2.0 | 5.0 | 0.00 | 0.00 | 0.00 | 22 | 1004.6 |
| 20260505014300 | 68 | 220 | 4.0 | 5.0 | 0.00 | 0.00 | 0.00 | 22 | 1004.6 |
| 20260505014201 | 68 | 198 | 3.0 | 5.0 | 0.00 | 0.00 | 0.00 | 22 | 1004.7 |
| 20260505014101 | 69 | 191 | 3.0 | 4.0 | 0.00 | 0.00 | 0.00 | 22 | 1004.7 |
| 20260505013900 | 69 | 216 | 4.0 | 4.0 | 0.00 | 0.00 | 0.00 | 22 | 1004.6 |
| 20260505013759 | 69 | 151 | 0.0 | 4.0 | 0.00 | 0.00 | 0.00 | 21 | 1004.6 |
| 20260505013700 | 69 | 193 | 3.0 | 4.0 | 0.00 | 0.00 | 0.00 | 22 | 1004.7 |
| 20260505013559 | 69 | 248 | 2.0 | 6.0 | 0.00 | 0.00 | 0.00 | 21 | 1004.6 |
| 20260505013459 | 69 | 215 | 0.0 | 6.0 | 0.00 | 0.00 | 0.00 | 21 | 1004.6 |
| 20260505013259 | 69 | 219 | 2.0 | 9.0 | 0.00 | 0.00 | 0.00 | 21 | 1004.6 |
| 20260505013159 | 69 | 159 | 2.0 | 9.0 | 0.00 | 0.00 | 0.00 | 21 | 1004.6 |
| 20260505012859 | 69 | 175 | 3.0 | 9.0 | 0.00 | 0.00 | 0.00 | 21 | 1004.7 |
| 20260505012800 | 69 | 227 | 3.0 | 9.0 | 0.00 | 0.00 | 0.00 | 21 | 1004.7 |
| 20260505012559 | 69 | 226 | 3.0 | 9.0 | 0.00 | 0.00 | 0.00 | 21 | 1004.7 |
| 20260505012459 | 69 | 194 | 3.0 | 9.0 | 0.00 | 0.00 | 0.00 | 22 | 1004.7 |
| 20260505012400 | 69 | 165 | 4.0 | 9.0 | 0.00 | 0.00 | 0.00 | 21 | 1004.7 |
| 20260505012259 | 69 | 209 | 2.0 | 9.0 | 0.00 | 0.00 | 0.00 | 22 | 1004.7 |
| 20260505012159 | 69 | 209 | 4.0 | 9.0 | 0.00 | 0.00 | 0.00 | 22 | 1004.7 |
| 20260505012059 | 69 | 199 | 3.0 | 9.0 | 0.00 | 0.00 | 0.00 | 21 | 1004.7 |
| 20260505012000 | 69 | 197 | 3.0 | 9.0 | 0.00 | 0.00 | 0.00 | 21 | 1004.7 |
| 20260505011901 | 69 | 212 | 7.0 | 9.0 | 0.00 | 0.00 | 0.00 | 22 | 1004.8 |
| 20260505011759 | 69 | 212 | 5.0 | 9.0 | 0.00 | 0.00 | 0.00 | 21 | 1004.8 |
| 20260505011659 | 69 | 174 | 7.0 | 9.0 | 0.00 | 0.00 | 0.00 | 21 | 1004.8 |
| 20260505011559 | 69 | 195 | 2.0 | 9.0 | 0.00 | 0.00 | 0.00 | 22 | 1004.8 |
| 20260505011500 | 69 | 151 | 2.0 | 9.0 | 0.00 | 0.00 | 0.00 | 22 | 1004.8 |
| 20260505011359 | 69 | 213 | 4.0 | 9.0 | 0.00 | 0.00 | 0.00 | 22 | 1004.8 |
| 20260505011259 | 69 | 154 | 2.0 | 9.0 | 0.00 | 0.00 | 0.00 | 21 | 1004.8 |
| 20260505011159 | 69 | 239 | 2.0 | 9.0 | 0.00 | 0.00 | 0.00 | 22 | 1004.8 |
| 20260505010901 | 69 | 161 | 1.0 | 9.0 | 0.00 | 0.00 | 0.00 | 22 | 1004.8 |
| 20260505010801 | 70 | 215 | 4.0 | 9.0 | 0.00 | 0.00 | 0.00 | 21 | 1004.8 |
| 20260505010659 | 70 | 188 | 6.0 | 9.0 | 0.00 | 0.00 | 0.00 | 22 | 1004.9 |
| 20260505010600 | 70 | 148 | 2.0 | 9.0 | 0.00 | 0.00 | 0.00 | 21 | 1004.8 |
| 20260505010300 | 70 | 176 | 6.0 | 8.0 | 0.00 | 0.00 | 0.00 | 21 | 1004.8 |
| 20260505010159 | 70 | 200 | 8.0 | 8.0 | 0.00 | 0.00 | 0.00 | 21 | 1004.8 |
| 20260505010003 | 70 | 208 | 5.0 | 7.0 | 0.00 | 0.00 | 0.00 | 21 | 1004.9 |
| 20260505005859 | 70 | 197 | 3.0 | 7.0 | 0.00 | 0.00 | 0.00 | 21 | 1004.8 |
| 20260505005659 | 70 | 206 | 4.0 | 7.0 | 0.00 | 0.00 | 0.00 | 21 | 1004.9 |
| 20260505005559 | 70 | 217 | 2.0 | 7.0 | 0.00 | 0.00 | 0.00 | 21 | 1004.9 |
| 20260505005500 | 70 | 180 | 3.0 | 7.0 | 0.00 | 0.00 | 0.00 | 20 | 1004.9 |
| 20260505005401 | 70 | 158 | 2.0 | 7.0 | 0.00 | 0.00 | 0.00 | 20 | 1004.9 |
| 20260505005259 | 70 | 201 | 6.0 | 7.0 | 0.00 | 0.00 | 0.00 | 21 | 1004.9 |
| 20260505005159 | 70 | 196 | 2.0 | 7.0 | 0.00 | 0.00 | 0.00 | 21 | 1004.9 |
| 20260505005059 | 70 | 217 | 1.0 | 7.0 | 0.00 | 0.00 | 0.00 | 21 | 1004.9 |
| 20260505005000 | 70 | 230 | 2.0 | 7.0 | 0.00 | 0.00 | 0.00 | 22 | 1004.9 |
| 20260505004859 | 70 | 240 | 2.0 | 7.0 | 0.00 | 0.00 | 0.00 | 22 | 1004.9 |
| 20260505004759 | 70 | 161 | 1.0 | 7.0 | 0.00 | 0.00 | 0.00 | 22 | 1004.9 |
| 20260505004659 | 70 | 209 | 1.0 | 7.0 | 0.00 | 0.00 | 0.00 | 22 | 1004.9 |
| 20260505004559 | 70 | 165 | 5.0 | 7.0 | 0.00 | 0.00 | 0.00 | 21 | 1004.9 |
| 20260505004500 | 70 | 129 | 4.0 | 7.0 | 0.00 | 0.00 | 0.00 | 21 | 1004.9 |
| 20260505004400 | 70 | 124 | 2.0 | 7.0 | 0.00 | 0.00 | 0.00 | 22 | 1004.8 |
| 20260505004300 | 70 | 182 | 4.0 | 7.0 | 0.00 | 0.00 | 0.00 | 21 | 1004.9 |
| 20260505004200 | 70 | 202 | 5.0 | 7.0 | 0.00 | 0.00 | 0.00 | 21 | 1004.9 |
| 20260505003959 | 71 | 203 | 3.0 | 8.0 | 0.00 | 0.00 | 0.00 | 21 | 1004.9 |
| 20260505003859 | 71 | 213 | 5.0 | 10.0 | 0.00 | 0.00 | 0.00 | 22 | 1004.9 |
| 20260505003759 | 71 | 198 | 3.0 | 12.0 | 0.00 | 0.00 | 0.00 | 21 | 1004.9 |
| 20260505003659 | 71 | 152 | 3.0 | 12.0 | 0.00 | 0.00 | 0.00 | 21 | 1005.0 |
| 20260505003459 | 71 | 162 | 1.0 | 12.0 | 0.00 | 0.00 | 0.00 | 22 | 1004.9 |
| 20260505003359 | 71 | 163 | 2.0 | 12.0 | 0.00 | 0.00 | 0.00 | 21 | 1004.9 |
| 20260505003259 | 71 | 190 | 1.0 | 12.0 | 0.00 | 0.00 | 0.00 | 21 | 1005.0 |
| 20260505003200 | 71 | 192 | 3.0 | 12.0 | 0.00 | 0.00 | 0.00 | 22 | 1005.0 |
| 20260505003059 | 71 | 223 | 3.0 | 12.0 | 0.00 | 0.00 | 0.00 | 21 | 1005.0 |
| 20260505002959 | 71 | 212 | 6.0 | 12.0 | 0.00 | 0.00 | 0.00 | 22 | 1005.1 |
| 20260505002859 | 72 | 208 | 6.0 | 10.0 | 0.00 | 0.00 | 0.00 | 21 | 1005.0 |
| 20260505002800 | 72 | 183 | 7.0 | 10.0 | 0.00 | 0.00 | 0.00 | 20 | 1005.1 |
| 20260505002600 | 72 | 190 | 3.0 | 10.0 | 0.00 | 0.00 | 0.00 | 20 | 1005.0 |
| 20260505002459 | 72 | 173 | 2.0 | 10.0 | 0.00 | 0.00 | 0.00 | 20 | 1005.1 |
| 20260505002359 | 72 | 254 | 9.0 | 9.0 | 0.00 | 0.00 | 0.00 | 19 | 1005.1 |
| 20260505002200 | 72 | 186 | 4.0 | 9.0 | 0.00 | 0.00 | 0.00 | 18 | 1005.0 |
| 20260505002101 | 72 | 182 | 2.0 | 9.0 | 0.00 | 0.00 | 0.00 | 18 | 1005.0 |
| 20260505002000 | 72 | 247 | 3.0 | 9.0 | 0.00 | 0.00 | 0.00 | 19 | 1005.0 |
| 20260505001859 | 72 | 232 | 3.0 | 9.0 | 0.00 | 0.00 | 0.00 | 18 | 1005.1 |
| 20260505001759 | 72 | 214 | 3.0 | 9.0 | 0.00 | 0.00 | 0.00 | 20 | 1005.1 |
| 20260505001700 | 72 | 259 | 1.0 | 9.0 | 0.00 | 0.00 | 0.00 | 20 | 1005.1 |
| 20260505001600 | 72 | 227 | 4.0 | 9.0 | 0.00 | 0.00 | 0.00 | 18 | 1005.1 |
| 20260505001500 | 72 | 242 | 4.0 | 9.0 | 0.00 | 0.00 | 0.00 | 18 | 1005.1 |
| 20260505001400 | 72 | 184 | 3.0 | 9.0 | 0.00 | 0.00 | 0.00 | 18 | 1005.0 |
| 20260505001259 | 72 | 218 | 8.0 | 8.0 | 0.00 | 0.00 | 0.00 | 17 | 1005.0 |
| 20260505001200 | 72 | 253 | 2.0 | 8.0 | 0.00 | 0.00 | 0.00 | 18 | 1005.1 |
| 20260505001100 | 72 | 232 | 4.0 | 8.0 | 0.00 | 0.00 | 0.00 | 19 | 1005.1 |
| 20260505000959 | 72 | 228 | 8.0 | 8.0 | 0.00 | 0.00 | 0.00 | 18 | 1005.1 |
| 20260505000900 | 72 | 222 | 5.0 | 7.0 | 0.00 | 0.00 | 0.00 | 20 | 1005.0 |
| 20260505000800 | 72 | 246 | 3.0 | 7.0 | 0.00 | 0.00 | 0.00 | 19 | 1005.1 |
| 20260505000659 | 72 | 257 | 2.0 | 7.0 | 0.00 | 0.00 | 0.00 | 18 | 1005.1 |
| 20260505000500 | 72 | 134 | 2.0 | 7.0 | 0.00 | 0.00 | 0.00 | 19 | 1005.1 |
| 20260505000359 | 72 | 177 | 2.0 | 8.0 | 0.00 | 0.00 | 0.00 | 19 | 1005.1 |
| 20260505000259 | 72 | 200 | 6.0 | 8.0 | 0.00 | 0.00 | 0.00 | 20 | 1005.1 |
| 20260505000201 | 72 | 198 | 2.0 | 9.0 | 0.00 | 0.00 | 0.00 | 20 | 1005.1 |
| 20260505000059 | 72 | 250 | 1.0 | 9.0 | 0.00 | 0.00 | 0.00 | 20 | 1005.1 |
| 20260505000005 | 72 | 196 | 1.0 | 9.0 | 0.00 | 0.00 | 0.00 | 18 | 1005.1 |
| 20260504235900 | 72 | 216 | 2.0 | 9.0 | 0.00 | 0.00 | 0.00 | 19 | 1005.1 |
| 20260504235759 | 72 | 171 | 1.0 | 9.0 | 0.00 | 0.00 | 0.00 | 19 | 1005.1 |
| 20260504235659 | 72 | 254 | 3.0 | 9.0 | 0.00 | 0.00 | 0.00 | 20 | 1005.1 |
| 20260504235600 | 72 | 284 | 2.0 | 9.0 | 0.00 | 0.00 | 0.00 | 19 | 1005.2 |
| 20260504235500 | 73 | 213 | 7.0 | 9.0 | 0.00 | 0.00 | 0.00 | 19 | 1005.2 |
| 20260504235359 | 73 | 160 | 5.0 | 9.0 | 0.00 | 0.00 | 0.00 | 19 | 1005.2 |
| 20260504235301 | 73 | 198 | 5.0 | 8.0 | 0.00 | 0.00 | 0.00 | 19 | 1005.2 |
| 20260504235000 | 72 | 257 | 3.0 | 7.0 | 0.00 | 0.00 | 0.00 | 21 | 1005.2 |
| 20260504234859 | 72 | 207 | 2.0 | 7.0 | 0.00 | 0.00 | 0.00 | 20 | 1005.2 |
| 20260504234800 | 72 | 269 | 2.0 | 7.0 | 0.00 | 0.00 | 0.00 | 20 | 1005.2 |
| 20260504234700 | 72 | 217 | 3.0 | 10.0 | 0.00 | 0.00 | 0.00 | 20 | 1005.2 |
| 20260504234559 | 72 | 207 | 3.0 | 10.0 | 0.00 | 0.00 | 0.00 | 20 | 1005.2 |
| 20260504234500 | 72 | 211 | 2.0 | 10.0 | 0.00 | 0.00 | 0.00 | 21 | 1005.2 |
| 20260504234259 | 72 | 202 | 2.0 | 10.0 | 0.00 | 0.00 | 0.00 | 21 | 1005.2 |
| 20260504234159 | 72 | 294 | 1.0 | 10.0 | 0.00 | 0.00 | 0.00 | 20 | 1005.2 |
| 20260504234100 | 72 | 209 | 7.0 | 10.0 | 0.00 | 0.00 | 0.00 | 21 | 1005.2 |
| 20260504234000 | 72 | 202 | 5.0 | 10.0 | 0.00 | 0.00 | 0.00 | 20 | 1005.2 |
| 20260504233800 | 73 | 234 | 6.0 | 10.0 | 0.00 | 0.00 | 0.00 | 19 | 1005.2 |
| 20260504233600 | 73 | 248 | 6.0 | 8.0 | 0.00 | 0.00 | 0.00 | 21 | 1005.2 |
| 20260504233400 | 72 | 220 | 4.0 | 8.0 | 0.00 | 0.00 | 0.00 | 21 | 1005.2 |
| 20260504233259 | 72 | 215 | 3.0 | 8.0 | 0.00 | 0.00 | 0.00 | 19 | 1005.2 |
| 20260504233200 | 72 | 198 | 3.0 | 10.0 | 0.00 | 0.00 | 0.00 | 19 | 1005.2 |
| 20260504233059 | 72 | 212 | 3.0 | 10.0 | 0.00 | 0.00 | 0.00 | 21 | 1005.2 |
| 20260504233000 | 72 | 219 | 3.0 | 10.0 | 0.00 | 0.00 | 0.00 | 20 | 1005.2 |
| 20260504232800 | 73 | 223 | 1.0 | 10.0 | 0.00 | 0.00 | 0.00 | 18 | 1005.2 |
| 20260504232659 | 73 | 182 | 8.0 | 10.0 | 0.00 | 0.00 | 0.00 | 19 | 1005.2 |
| 20260504232600 | 73 | 221 | 2.0 | 10.0 | 0.00 | 0.00 | 0.00 | 20 | 1005.2 |
| 20260504232500 | 73 | 222 | 5.0 | 10.0 | 0.00 | 0.00 | 0.00 | 20 | 1005.2 |
| 20260504232359 | 73 | 347 | 3.0 | 10.0 | 0.00 | 0.00 | 0.00 | 21 | 1005.2 |
| 20260504232259 | 73 | 278 | 10.0 | 10.0 | 0.00 | 0.00 | 0.00 | 19 | 1005.2 |
| 20260504232200 | 73 | 240 | 9.0 | 9.0 | 0.00 | 0.00 | 0.00 | 20 | 1005.2 |
| 20260504232059 | 73 | 205 | 7.0 | 9.0 | 0.00 | 0.00 | 0.00 | 20 | 1005.2 |
| 20260504232000 | 73 | 204 | 3.0 | 9.0 | 0.00 | 0.00 | 0.00 | 20 | 1005.2 |
| 20260504231859 | 73 | 257 | 5.0 | 9.0 | 0.00 | 0.00 | 0.00 | 20 | 1005.2 |
| 20260504231800 | 73 | 238 | 6.0 | 9.0 | 0.00 | 0.00 | 0.00 | 20 | 1005.2 |
| 20260504231600 | 73 | 292 | 0.0 | 9.0 | 0.00 | 0.00 | 0.00 | 20 | 1005.2 |
| 20260504231459 | 73 | 251 | 3.0 | 11.0 | 0.00 | 0.00 | 0.00 | 20 | 1005.2 |
| 20260504231259 | 73 | 203 | 4.0 | 11.0 | 0.00 | 0.00 | 0.00 | 19 | 1005.2 |
| 20260504231200 | 73 | 188 | 4.0 | 11.0 | 0.00 | 0.00 | 0.00 | 22 | 1005.2 |
| 20260504231059 | 73 | 205 | 5.0 | 11.0 | 0.00 | 0.00 | 0.00 | 21 | 1005.2 |
| 20260504231000 | 73 | 298 | 1.0 | 11.0 | 0.00 | 0.00 | 0.00 | 20 | 1005.1 |
| 20260504230859 | 73 | 202 | 1.0 | 11.0 | 0.00 | 0.00 | 0.00 | 21 | 1005.2 |
| 20260504230759 | 73 | 257 | 5.0 | 11.0 | 0.00 | 0.00 | 0.00 | 21 | 1005.2 |
| 20260504230659 | 73 | 248 | 4.0 | 17.0 | 0.00 | 0.00 | 0.00 | 20 | 1005.2 |
| 20260504230559 | 73 | 240 | 7.0 | 17.0 | 0.00 | 0.00 | 0.00 | 21 | 1005.2 |
| 20260504230400 | 74 | 244 | 10.0 | 17.0 | 0.00 | 0.00 | 0.00 | 22 | 1005.1 |
| 20260504230300 | 74 | 243 | 5.0 | 17.0 | 0.00 | 0.00 | 0.00 | 22 | 1005.1 |
| 20260504230200 | 74 | 293 | 4.0 | 17.0 | 0.00 | 0.00 | 0.00 | 21 | 1005.2 |
| 20260504230059 | 74 | 242 | 8.0 | 17.0 | 0.00 | 0.00 | 0.00 | 22 | 1005.2 |
| 20260504230003 | 74 | 240 | 4.0 | 17.0 | 0.00 | 0.00 | 0.00 | 22 | 1005.2 |
| 20260504225902 | 74 | 248 | 5.0 | 17.0 | 0.00 | 0.00 | 0.00 | 20 | 1005.1 |
| 20260504225802 | 74 | 219 | 8.0 | 12.0 | 0.00 | 0.00 | 0.00 | 16 | 1005.1 |
| 20260504225702 | 74 | 244 | 3.0 | 10.0 | 0.00 | 0.00 | 0.00 | 15 | 1005.1 |
| 20260504225501 | 74 | 246 | 4.0 | 10.0 | 0.00 | 0.00 | 0.00 | 15 | 1005.0 |
| 20260504225402 | 74 | 234 | 1.0 | 10.0 | 0.00 | 0.00 | 0.00 | 14 | 1005.1 |
| 20260504225304 | 74 | 215 | 5.0 | 10.0 | 0.00 | 0.00 | 0.00 | 15 | 1005.1 |
| 20260504225202 | 74 | 210 | 5.0 | 10.0 | 0.00 | 0.00 | 0.00 | 18 | 1005.0 |
| 20260504225100 | 74 | 236 | 3.0 | 8.0 | 0.00 | 0.00 | 0.00 | 18 | 1005.1 |
| 20260504225002 | 74 | 262 | 3.0 | 6.0 | 0.00 | 0.00 | 0.00 | 17 | 1005.1 |
| 20260504224903 | 74 | 247 | 4.0 | 7.0 | 0.00 | 0.00 | 0.00 | 18 | 1005.1 |
| 20260504224801 | 74 | 214 | 6.0 | 7.0 | 0.00 | 0.00 | 0.00 | 16 | 1005.1 |
| 20260504224701 | 74 | 300 | 4.0 | 7.0 | 0.00 | 0.00 | 0.00 | 16 | 1005.1 |
| 20260504224601 | 74 | 246 | 2.0 | 8.0 | 0.00 | 0.00 | 0.00 | 16 | 1005.1 |
| 20260504224501 | 74 | 267 | 2.0 | 8.0 | 0.00 | 0.00 | 0.00 | 15 | 1005.2 |
| 20260504224301 | 74 | 215 | 3.0 | 9.0 | 0.00 | 0.00 | 0.00 | 14 | 1005.1 |
| 20260504224202 | 74 | 202 | 3.0 | 9.0 | 0.00 | 0.00 | 0.00 | 16 | 1005.2 |
| 20260504224102 | 74 | 237 | 5.0 | 9.0 | 0.00 | 0.00 | 0.00 | 17 | 1005.1 |
| 20260504224002 | 74 | 239 | 6.0 | 9.0 | 0.00 | 0.00 | 0.00 | 16 | 1005.1 |
| 20260504223901 | 74 | 200 | 2.0 | 9.0 | 0.00 | 0.00 | 0.00 | 17 | 1005.2 |
| 20260504223801 | 74 | 208 | 5.0 | 9.0 | 0.00 | 0.00 | 0.00 | 16 | 1005.1 |
| 20260504223701 | 74 | 231 | 3.0 | 9.0 | 0.00 | 0.00 | 0.00 | 16 | 1005.1 |
| 20260504223600 | 74 | 264 | 3.0 | 9.0 | 0.00 | 0.00 | 0.00 | 16 | 1005.1 |
| 20260504223501 | 74 | 235 | 6.0 | 9.0 | 0.00 | 0.00 | 0.00 | 15 | 1005.2 |
| 20260504223401 | 74 | 290 | 3.0 | 7.0 | 0.00 | 0.00 | 0.00 | 18 | 1005.1 |
| 20260504223301 | 74 | 277 | 3.0 | 7.0 | 0.00 | 0.00 | 0.00 | 18 | 1005.1 |
| 20260504223201 | 74 | 225 | 4.0 | 11.0 | 0.00 | 0.00 | 0.00 | 15 | 1005.1 |
| 20260504223102 | 74 | 238 | 5.0 | 11.0 | 0.00 | 0.00 | 0.00 | 17 | 1005.1 |
| 20260504223001 | 74 | 216 | 3.0 | 11.0 | 0.00 | 0.00 | 0.00 | 17 | 1005.1 |
| 20260504222901 | 74 | 208 | 6.0 | 11.0 | 0.00 | 0.00 | 0.00 | 15 | 1005.1 |
| 20260504222800 | 74 | 228 | 1.0 | 11.0 | 0.00 | 0.00 | 0.00 | 16 | 1005.1 |
| 20260504222601 | 74 | 191 | 4.0 | 11.0 | 0.00 | 0.00 | 0.00 | 14 | 1005.1 |
| 20260504222501 | 74 | 177 | 4.0 | 11.0 | 0.00 | 0.00 | 0.00 | 15 | 1005.2 |
| 20260504222200 | 75 | 231 | 6.0 | 9.0 | 0.00 | 0.00 | 0.00 | 17 | 1005.1 |
| 20260504222002 | 75 | 289 | 4.0 | 5.0 | 0.00 | 0.00 | 0.00 | 16 | 1005.1 |
| 20260504221902 | 75 | 298 | 4.0 | 5.0 | 0.00 | 0.00 | 0.00 | 14 | 1005.1 |
| 20260504221801 | 75 | 246 | 4.0 | 5.0 | 0.00 | 0.00 | 0.00 | 17 | 1005.1 |
| 20260504221700 | 75 | 219 | 3.0 | 5.0 | 0.00 | 0.00 | 0.00 | 16 | 1005.1 |
| 20260504221601 | 75 | 205 | 1.0 | 5.0 | 0.00 | 0.00 | 0.00 | 16 | 1005.2 |
| 20260504221501 | 75 | 203 | 2.0 | 5.0 | 0.00 | 0.00 | 0.00 | 15 | 1005.2 |
| 20260504221400 | 75 | 213 | 3.0 | 6.0 | 0.00 | 0.00 | 0.00 | 17 | 1005.2 |
| 20260504221301 | 75 | 275 | 2.0 | 8.0 | 0.00 | 0.00 | 0.00 | 16 | 1005.2 |
| 20260504221202 | 75 | 317 | 2.0 | 10.0 | 0.00 | 0.00 | 0.00 | 17 | 1005.2 |
| 20260504221102 | 75 | 325 | 2.0 | 10.0 | 0.00 | 0.00 | 0.00 | 17 | 1005.2 |
| 20260504221002 | 75 | 321 | 2.0 | 10.0 | 0.00 | 0.00 | 0.00 | 18 | 1005.2 |
| 20260504220802 | 75 | 295 | 2.0 | 10.0 | 0.00 | 0.00 | 0.00 | 19 | 1005.2 |
| 20260504220701 | 75 | 330 | 3.0 | 11.0 | 0.00 | 0.00 | 0.00 | 15 | 1005.2 |
| 20260504220602 | 75 | 306 | 3.0 | 11.0 | 0.00 | 0.00 | 0.00 | 16 | 1005.3 |
| 20260504220501 | 75 | 191 | 3.0 | 11.0 | 0.00 | 0.00 | 0.00 | 16 | 1005.3 |
| 20260504220400 | 75 | 246 | 4.0 | 11.0 | 0.00 | 0.00 | 0.00 | 16 | 1005.3 |
| 20260504220300 | 75 | 279 | 5.0 | 11.0 | 0.00 | 0.00 | 0.00 | 17 | 1005.3 |
| 20260504220005 | 75 | 198 | 4.0 | 11.0 | 0.00 | 0.00 | 0.00 | 16 | 1005.3 |
| 20260504215900 | 75 | 198 | 9.0 | 11.0 | 0.00 | 0.00 | 0.00 | 16 | 1005.3 |
| 20260504215702 | 75 | 203 | 5.0 | 5.0 | 0.00 | 0.00 | 0.00 | 16 | 1005.3 |
| 20260504215602 | 74 | 125 | 2.0 | 5.0 | 0.00 | 0.00 | 0.00 | 18 | 1005.3 |
| 20260504215401 | 74 | 242 | 3.0 | 5.0 | 0.00 | 0.00 | 0.00 | 14 | 1005.3 |
| 20260504215300 | 74 | 116 | 1.0 | 5.0 | 0.00 | 0.00 | 0.00 | 14 | 1005.3 |
| 20260504215201 | 74 | 115 | 1.0 | 5.0 | 0.00 | 0.00 | 0.00 | 14 | 1005.4 |
| 20260504215100 | 74 | 109 | 0.0 | 5.0 | 0.00 | 0.00 | 0.00 | 14 | 1005.4 |
| 20260504215001 | 74 | 269 | 1.0 | 5.0 | 0.00 | 0.00 | 0.00 | 16 | 1005.4 |
| 20260504214901 | 74 | 185 | 4.0 | 7.0 | 0.00 | 0.00 | 0.00 | 15 | 1005.5 |
| 20260504214801 | 74 | 210 | 2.0 | 7.0 | 0.00 | 0.00 | 0.00 | 14 | 1005.4 |
| 20260504214701 | 74 | 242 | 2.0 | 7.0 | 0.00 | 0.00 | 0.00 | 14 | 1005.5 |
| 20260504214601 | 74 | 145 | 2.0 | 7.0 | 0.00 | 0.00 | 0.00 | 15 | 1005.5 |
| 20260504214502 | 74 | 115 | 2.0 | 7.0 | 0.00 | 0.00 | 0.00 | 14 | 1005.5 |
| 20260504214400 | 74 | 105 | 2.0 | 7.0 | 0.00 | 0.00 | 0.00 | 14 | 1005.6 |
| 20260504214300 | 74 | 165 | 4.0 | 7.0 | 0.00 | 0.00 | 0.00 | 15 | 1005.6 |
| 20260504214200 | 75 | 213 | 2.0 | 7.0 | 0.00 | 0.00 | 0.00 | 14 | 1005.7 |
| 20260504214101 | 75 | 280 | 3.0 | 8.0 | 0.00 | 0.00 | 0.00 | 17 | 1005.7 |
| 20260504214001 | 75 | 288 | 3.0 | 8.0 | 0.00 | 0.00 | 0.00 | 17 | 1005.7 |
| 20260504213902 | 75 | 315 | 1.0 | 8.0 | 0.00 | 0.00 | 0.00 | 18 | 1005.7 |
| 20260504213800 | 75 | 306 | 3.0 | 8.0 | 0.00 | 0.00 | 0.00 | 16 | 1005.7 |
| 20260504213702 | 75 | 285 | 7.0 | 8.0 | 0.00 | 0.00 | 0.00 | 15 | 1005.7 |
| 20260504213602 | 75 | 222 | 4.0 | 8.0 | 0.00 | 0.00 | 0.00 | 17 | 1005.7 |
| 20260504213502 | 75 | 298 | 3.0 | 8.0 | 0.00 | 0.00 | 0.00 | 17 | 1005.8 |
| 20260504213401 | 75 | 259 | 3.0 | 8.0 | 0.00 | 0.00 | 0.00 | 16 | 1005.8 |
| 20260504213300 | 75 | 223 | 3.0 | 8.0 | 0.00 | 0.00 | 0.00 | 15 | 1005.7 |
| 20260504213201 | 76 | 213 | 4.0 | 8.0 | 0.00 | 0.00 | 0.00 | 16 | 1005.8 |
| 20260504213100 | 76 | 119 | 1.0 | 7.0 | 0.00 | 0.00 | 0.00 | 15 | 1005.8 |
| 20260504212901 | 76 | 240 | 4.0 | 8.0 | 0.00 | 0.00 | 0.00 | 16 | 1005.8 |
| 20260504212701 | 76 | 287 | 1.0 | 8.0 | 0.00 | 0.00 | 0.00 | 15 | 1005.9 |
| 20260504212602 | 76 | 329 | 2.0 | 8.0 | 0.00 | 0.00 | 0.00 | 16 | 1005.9 |
| 20260504212502 | 76 | 219 | 2.0 | 8.0 | 0.00 | 0.00 | 0.00 | 17 | 1005.9 |
| 20260504212401 | 76 | 307 | 4.0 | 8.0 | 0.00 | 0.00 | 0.00 | 17 | 1005.9 |
| 20260504212301 | 76 | 274 | 6.0 | 8.0 | 0.00 | 0.00 | 0.00 | 17 | 1005.8 |
| 20260504212101 | 76 | 208 | 2.0 | 3.0 | 0.00 | 0.00 | 0.00 | 15 | 1005.9 |
| 20260504212002 | 76 | 277 | 1.0 | 3.0 | 0.00 | 0.00 | 0.00 | 17 | 1005.9 |
| 20260504211800 | 76 | 5 | 1.0 | 4.0 | 0.00 | 0.00 | 0.00 | 15 | 1005.9 |
| 20260504211701 | 76 | 64 | 1.0 | 4.0 | 0.00 | 0.00 | 0.00 | 16 | 1005.9 |
| 20260504211600 | 76 | 32 | 3.0 | 4.0 | 0.00 | 0.00 | 0.00 | 16 | 1005.9 |
| 20260504211501 | 76 | 15 | 2.0 | 5.0 | 0.00 | 0.00 | 0.00 | 20 | 1006.0 |
| 20260504211402 | 75 | 302 | 1.0 | 5.0 | 0.00 | 0.00 | 0.00 | 16 | 1006.0 |
| 20260504211301 | 75 | 319 | 1.0 | 5.0 | 0.00 | 0.00 | 0.00 | 20 | 1006.0 |
| 20260504211213 | 75 | 310 | 1.0 | 5.0 | 0.00 | 0.00 | 0.00 | 17 | 1006.0 |
| 20260504211101 | 75 | 323 | 2.0 | 5.0 | 0.00 | 0.00 | 0.00 | 16 | 1006.0 |
| 20260504210902 | 75 | 292 | 3.0 | 7.0 | 0.00 | 0.00 | 0.00 | 16 | 1006.0 |
| 20260504210800 | 75 | 303 | 3.0 | 7.0 | 0.00 | 0.00 | 0.00 | 16 | 1006.0 |
| 20260504210701 | 76 | 299 | 2.0 | 7.0 | 0.00 | 0.00 | 0.00 | 16 | 1006.0 |
| 20260504210501 | 76 | 251 | 1.0 | 7.0 | 0.00 | 0.00 | 0.00 | 15 | 1006.1 |
| 20260504210400 | 76 | 320 | 2.0 | 7.0 | 0.00 | 0.00 | 0.00 | 16 | 1006.1 |
| 20260504210300 | 76 | 347 | 1.0 | 7.0 | 0.00 | 0.00 | 0.00 | 17 | 1006.1 |
| 20260504210200 | 76 | 273 | 1.0 | 7.0 | 0.00 | 0.00 | 0.00 | 17 | 1006.1 |
| 20260504210101 | 76 | 269 | 3.0 | 7.0 | 0.00 | 0.00 | 0.00 | 17 | 1006.2 |
| 20260504210006 | 76 | 188 | 6.0 | 6.0 | 0.00 | 0.00 | 0.00 | 18 | 1006.2 |
| 20260504205903 | 76 | 342 | 3.0 | 6.0 | 0.00 | 0.00 | 0.00 | 20 | 1006.1 |
| 20260504205800 | 76 | 192 | 3.0 | 6.0 | 0.00 | 0.00 | 0.00 | 16 | 1006.1 |
| 20260504205700 | 76 | 343 | 2.0 | 6.0 | 0.00 | 0.00 | 0.00 | 17 | 1006.1 |
| 20260504205602 | 76 | 311 | 0.0 | 6.0 | 0.00 | 0.00 | 0.00 | 19 | 1006.1 |
| 20260504205502 | 76 | 314 | 1.0 | 6.0 | 0.00 | 0.00 | 0.00 | 16 | 1006.2 |
| 20260504205401 | 76 | 261 | 4.0 | 7.0 | 0.00 | 0.00 | 0.00 | 19 | 1006.1 |
| 20260504205100 | 75 | 167 | 1.0 | 7.0 | 0.00 | 0.00 | 0.00 | 21 | 1006.1 |
| 20260504205001 | 75 | 232 | 3.0 | 7.0 | 0.00 | 0.00 | 0.00 | 22 | 1006.2 |
| 20260504204701 | 75 | 319 | 1.0 | 7.0 | 0.00 | 0.00 | 0.00 | 16 | 1006.2 |
| 20260504204601 | 75 | 263 | 3.0 | 7.0 | 0.00 | 0.00 | 0.00 | 16 | 1006.2 |
| 20260504204401 | 76 | 172 | 3.0 | 7.0 | 0.00 | 0.00 | 0.00 | 16 | 1006.2 |
| 20260504204300 | 76 | 167 | 2.0 | 7.0 | 0.00 | 0.00 | 0.00 | 17 | 1006.2 |
| 20260504204201 | 76 | 171 | 4.0 | 7.0 | 0.00 | 0.00 | 0.00 | 18 | 1006.2 |
| 20260504204001 | 76 | 340 | 2.0 | 4.0 | 0.00 | 0.00 | 0.00 | 16 | 1006.3 |
| 20260504203901 | 76 | 342 | 1.0 | 5.0 | 0.00 | 0.00 | 0.00 | 19 | 1006.2 |
| 20260504203701 | 76 | 302 | 1.0 | 6.0 | 0.00 | 0.00 | 0.00 | 18 | 1006.3 |
| 20260504203601 | 76 | 318 | 2.0 | 6.0 | 0.00 | 0.00 | 0.00 | 18 | 1006.2 |
| 20260504203402 | 75 | 336 | 2.0 | 9.0 | 0.00 | 0.00 | 0.00 | 20 | 1006.3 |
| 20260504203300 | 75 | 360 | 1.0 | 9.0 | 0.00 | 0.00 | 0.00 | 18 | 1006.3 |
| 20260504203201 | 75 | 349 | 1.0 | 9.0 | 0.00 | 0.00 | 0.00 | 19 | 1006.3 |
| 20260504202901 | 75 | 285 | 3.0 | 9.0 | 0.00 | 0.00 | 0.00 | 18 | 1006.4 |
| 20260504202801 | 75 | 279 | 4.0 | 9.0 | 0.00 | 0.00 | 0.00 | 17 | 1006.3 |
| 20260504202602 | 76 | 299 | 1.0 | 7.0 | 0.00 | 0.00 | 0.00 | 20 | 1006.3 |
| 20260504202500 | 76 | 306 | 4.0 | 7.0 | 0.00 | 0.00 | 0.00 | 18 | 1006.4 |
| 20260504202401 | 76 | 232 | 4.0 | 7.0 | 0.00 | 0.00 | 0.00 | 18 | 1006.4 |
| 20260504202301 | 76 | 202 | 5.0 | 8.0 | 0.00 | 0.00 | 0.00 | 18 | 1006.4 |
| 20260504202200 | 76 | 210 | 2.0 | 8.0 | 0.00 | 0.00 | 0.00 | 17 | 1006.4 |
| 20260504202101 | 75 | 169 | 2.0 | 8.0 | 0.00 | 0.00 | 0.00 | 18 | 1006.4 |
| 20260504202001 | 75 | 225 | 2.0 | 8.0 | 0.00 | 0.00 | 0.00 | 18 | 1006.4 |
| 20260504201901 | 75 | 202 | 1.0 | 8.0 | 0.00 | 0.00 | 0.00 | 23 | 1006.4 |
| 20260504201800 | 75 | 212 | 3.0 | 8.0 | 0.00 | 0.00 | 0.00 | 23 | 1006.4 |
| 20260504201601 | 74 | 268 | 1.0 | 8.0 | 0.00 | 0.00 | 0.00 | 20 | 1006.5 |
| 20260504201500 | 74 | 186 | 3.0 | 8.0 | 0.00 | 0.00 | 0.00 | 20 | 1006.5 |
| 20260504201400 | 74 | 328 | 3.0 | 8.0 | 0.00 | 0.00 | 0.00 | 19 | 1006.5 |
| 20260504201302 | 74 | 310 | 1.0 | 4.0 | 0.00 | 0.00 | 0.00 | 22 | 1006.5 |
| 20260504201201 | 74 | 325 | 1.0 | 4.0 | 0.00 | 0.00 | 0.00 | 21 | 1006.6 |
| 20260504201101 | 74 | 273 | 4.0 | 4.0 | 0.00 | 0.00 | 0.00 | 19 | 1006.6 |
| 20260504201001 | 74 | 261 | 3.0 | 4.0 | 0.00 | 0.00 | 0.00 | 19 | 1006.6 |
| 20260504200900 | 74 | 325 | 0.0 | 4.0 | 0.00 | 0.00 | 0.00 | 19 | 1006.7 |
| 20260504200801 | 74 | 325 | 1.0 | 6.0 | 0.00 | 0.00 | 0.00 | 21 | 1006.6 |
| 20260504200701 | 74 | 310 | 2.0 | 7.0 | 0.00 | 0.00 | 0.00 | 21 | 1006.6 |
| 20260504200600 | 74 | 304 | 3.0 | 11.0 | 0.00 | 0.00 | 0.00 | 20 | 1006.6 |
| 20260504200501 | 73 | 322 | 3.0 | 11.0 | 0.00 | 0.00 | 0.00 | 20 | 1006.6 |
| 20260504200401 | 73 | 332 | 2.0 | 11.0 | 0.00 | 0.00 | 0.00 | 22 | 1006.7 |
| 20260504200300 | 73 | 327 | 3.0 | 11.0 | 0.00 | 0.00 | 0.00 | 23 | 1006.6 |
| 20260504200004 | 73 | 215 | 3.0 | 11.0 | 0.00 | 0.00 | 0.00 | 20 | 1006.6 |
| 20260504195901 | 73 | 304 | 3.0 | 11.0 | 0.00 | 0.00 | 0.00 | 19 | 1006.7 |
| 20260504195801 | 74 | 332 | 1.0 | 11.0 | 0.00 | 0.00 | 0.00 | 20 | 1006.7 |
| 20260504195601 | 74 | 228 | 2.0 | 7.0 | 0.00 | 0.00 | 0.00 | 24 | 1006.7 |
| 20260504195503 | 75 | 215 | 2.0 | 7.0 | 0.00 | 0.00 | 0.00 | 21 | 1006.7 |
| 20260504195301 | 75 | 259 | 2.0 | 7.0 | 0.00 | 0.00 | 0.00 | 22 | 1006.6 |
| 20260504195001 | 75 | 280 | 4.0 | 8.0 | 0.00 | 0.00 | 0.00 | 21 | 1006.7 |
| 20260504194900 | 75 | 244 | 4.0 | 8.0 | 0.00 | 0.00 | 0.00 | 19 | 1006.7 |
| 20260504194801 | 75 | 154 | 2.0 | 8.0 | 0.00 | 0.00 | 0.00 | 19 | 1006.8 |
| 20260504194701 | 75 | 227 | 2.0 | 8.0 | 0.00 | 0.00 | 0.00 | 20 | 1006.8 |
| 20260504194601 | 76 | 198 | 4.0 | 8.0 | 0.00 | 0.00 | 0.00 | 20 | 1006.8 |
| 20260504194502 | 76 | 208 | 2.0 | 8.0 | 0.00 | 0.00 | 0.00 | 19 | 1006.8 |
| 20260504194401 | 76 | 250 | 2.0 | 8.0 | 0.00 | 0.00 | 0.00 | 21 | 1006.8 |
| 20260504194301 | 76 | 265 | 4.0 | 8.0 | 0.00 | 0.00 | 0.00 | 22 | 1006.8 |
| 20260504194102 | 76 | 257 | 7.0 | 8.0 | 0.00 | 0.00 | 0.00 | 19 | 1006.9 |
| 20260504194001 | 76 | 275 | 8.0 | 8.0 | 0.00 | 0.00 | 0.00 | 21 | 1006.8 |
| 20260504193801 | 76 | 340 | 2.0 | 5.0 | 0.00 | 0.00 | 0.00 | 22 | 1006.8 |
| 20260504193702 | 76 | 332 | 2.0 | 5.0 | 0.00 | 0.00 | 0.00 | 22 | 1006.9 |
| 20260504193501 | 76 | 313 | 5.0 | 5.0 | 0.00 | 0.00 | 0.00 | 20 | 1006.9 |
| 20260504193400 | 76 | 330 | 3.0 | 5.0 | 0.00 | 0.00 | 0.00 | 22 | 1006.9 |
| 20260504193301 | 76 | 281 | 3.0 | 5.0 | 0.00 | 0.00 | 0.00 | 21 | 1006.9 |
| 20260504193201 | 76 | 291 | 1.0 | 5.0 | 0.00 | 0.00 | 0.00 | 21 | 1006.9 |
| 20260504193100 | 76 | 250 | 0.0 | 5.0 | 0.00 | 0.00 | 0.00 | 21 | 1006.9 |
| 20260504193001 | 75 | 351 | 1.0 | 5.0 | 0.00 | 0.00 | 0.00 | 22 | 1006.9 |
| 20260504192801 | 75 | 219 | 3.0 | 5.0 | 0.00 | 0.00 | 0.00 | 24 | 1006.9 |
| 20260504192601 | 75 | 300 | 4.0 | 5.0 | 0.00 | 0.00 | 0.00 | 22 | 1006.9 |
| 20260504192501 | 75 | 207 | 0.0 | 5.0 | 0.00 | 0.00 | 0.00 | 25 | 1006.9 |
| 20260504192301 | 74 | 331 | 1.0 | 5.0 | 0.00 | 0.00 | 0.00 | 26 | 1007.0 |
| 20260504192202 | 74 | 160 | 1.0 | 5.0 | 0.00 | 0.00 | 0.00 | 22 | 1007.0 |
| 20260504192101 | 74 | 153 | 2.0 | 5.0 | 0.00 | 0.00 | 0.00 | 20 | 1006.9 |
| 20260504192002 | 74 | 166 | 3.0 | 5.0 | 0.00 | 0.00 | 0.00 | 20 | 1007.0 |
| 20260504191800 | 74 | 178 | 2.0 | 5.0 | 0.00 | 0.00 | 0.00 | 21 | 1007.1 |
| 20260504191701 | 74 | 261 | 5.0 | 5.0 | 0.00 | 0.00 | 0.00 | 20 | 1007.0 |
| 20260504191600 | 74 | 252 | 3.0 | 5.0 | 0.00 | 0.00 | 0.00 | 22 | 1007.0 |
| 20260504191502 | 74 | 215 | 4.0 | 5.0 | 0.00 | 0.00 | 0.00 | 20 | 1007.0 |
| 20260504191402 | 74 | 221 | 2.0 | 7.0 | 0.00 | 0.00 | 0.00 | 20 | 1007.0 |
| 20260504191201 | 74 | 275 | 4.0 | 7.0 | 0.00 | 0.00 | 0.00 | 20 | 1007.1 |
| 20260504191101 | 74 | 351 | 2.0 | 9.0 | 0.00 | 0.00 | 0.00 | 20 | 1007.1 |
| 20260504191002 | 74 | 323 | 2.0 | 9.0 | 0.00 | 0.00 | 0.00 | 19 | 1007.1 |
| 20260504190900 | 74 | 323 | 1.0 | 9.0 | 0.00 | 0.00 | 0.00 | 20 | 1007.1 |
| 20260504190701 | 74 | 319 | 2.0 | 9.0 | 0.00 | 0.00 | 0.00 | 21 | 1007.1 |
| 20260504190600 | 74 | 260 | 1.0 | 9.0 | 0.00 | 0.00 | 0.00 | 20 | 1007.2 |
| 20260504190501 | 74 | 308 | 2.0 | 9.0 | 0.00 | 0.00 | 0.00 | 19 | 1007.2 |
| 20260504190402 | 74 | 277 | 1.0 | 9.0 | 0.00 | 0.00 | 0.00 | 21 | 1007.2 |
| 20260504190300 | 74 | 277 | 3.0 | 9.0 | 0.00 | 0.00 | 0.00 | 20 | 1007.2 |
| 20260504190201 | 74 | 355 | 0.0 | 7.0 | 0.00 | 0.00 | 0.00 | 23 | 1007.2 |
| 20260504185858 | 73 | 216 | 1.0 | 7.0 | 0.00 | 0.00 | 0.00 | 22 | 1007.2 |
| 20260504185759 | 73 | 251 | 4.0 | 7.0 | 0.00 | 0.00 | 0.00 | 24 | 1007.2 |
| 20260504185700 | 73 | 277 | 1.0 | 7.0 | 0.00 | 0.00 | 0.00 | 21 | 1007.2 |
| 20260504185601 | 73 | 227 | 4.0 | 7.0 | 0.00 | 0.00 | 0.00 | 23 | 1007.2 |
| 20260504185459 | 73 | 184 | 3.0 | 7.0 | 0.00 | 0.00 | 0.00 | 21 | 1007.2 |
| 20260504185358 | 73 | 209 | 6.0 | 7.0 | 0.00 | 0.00 | 0.00 | 23 | 1007.2 |
| 20260504185258 | 73 | 223 | 1.0 | 7.0 | 0.00 | 0.00 | 0.00 | 22 | 1007.2 |
| 20260504185100 | 73 | 221 | 3.0 | 7.0 | 0.00 | 0.00 | 0.00 | 23 | 1007.3 |
| 20260504185000 | 73 | 264 | 6.0 | 6.0 | 0.00 | 0.00 | 0.00 | 21 | 1007.3 |
| 20260504184859 | 73 | 205 | 3.0 | 7.0 | 0.00 | 0.00 | 0.00 | 24 | 1007.3 |
| 20260504184800 | 73 | 232 | 3.0 | 7.0 | 0.00 | 0.00 | 0.00 | 22 | 1007.3 |
| 20260504184700 | 73 | 234 | 3.0 | 7.0 | 0.00 | 0.00 | 0.00 | 20 | 1007.2 |
| 20260504184559 | 73 | 202 | 4.0 | 7.0 | 0.00 | 0.00 | 0.00 | 20 | 1007.3 |
| 20260504184501 | 73 | 229 | 5.0 | 7.0 | 0.00 | 0.00 | 0.00 | 22 | 1007.2 |
| 20260504184359 | 73 | 206 | 1.0 | 7.0 | 0.00 | 0.00 | 0.00 | 23 | 1007.3 |
| 20260504184259 | 73 | 209 | 3.0 | 7.0 | 0.00 | 0.00 | 0.00 | 21 | 1007.3 |
| 20260504184059 | 73 | 179 | 3.0 | 7.0 | 0.00 | 0.00 | 0.00 | 20 | 1007.3 |
| 20260504184000 | 74 | 150 | 2.0 | 7.0 | 0.00 | 0.00 | 0.00 | 20 | 1007.4 |
| 20260504183859 | 74 | 220 | 5.0 | 8.0 | 0.00 | 0.00 | 0.00 | 21 | 1007.4 |
| 20260504183759 | 74 | 158 | 0.0 | 7.0 | 0.00 | 0.00 | 0.00 | 21 | 1007.4 |
| 20260504183659 | 74 | 137 | 3.0 | 7.0 | 0.00 | 0.00 | 0.00 | 19 | 1007.4 |
| 20260504183500 | 74 | 259 | 2.0 | 7.0 | 0.00 | 0.00 | 0.00 | 20 | 1007.5 |
| 20260504183359 | 74 | 208 | 6.0 | 7.0 | 0.00 | 0.00 | 0.00 | 20 | 1007.5 |
| 20260504183258 | 74 | 253 | 3.0 | 6.0 | 0.00 | 0.00 | 0.00 | 21 | 1007.5 |
| 20260504183159 | 74 | 234 | 4.0 | 6.0 | 0.00 | 0.00 | 0.00 | 20 | 1007.5 |
| 20260504183059 | 74 | 176 | 3.0 | 4.0 | 0.00 | 0.00 | 0.00 | 20 | 1007.5 |
| 20260504183000 | 74 | 210 | 2.0 | 3.0 | 0.00 | 0.00 | 0.00 | 20 | 1007.5 |
| 20260504182900 | 74 | 71 | 1.0 | 3.0 | 0.00 | 0.00 | 0.00 | 19 | 1007.6 |
| 20260504182659 | 74 | 96 | 2.0 | 3.0 | 0.00 | 0.00 | 0.00 | 24 | 1007.6 |
| 20260504182459 | 73 | 65 | 1.0 | 3.0 | 0.00 | 0.00 | 0.00 | 22 | 1007.6 |
| 20260504182400 | 73 | 217 | 1.0 | 3.0 | 0.00 | 0.00 | 0.00 | 22 | 1007.6 |
| 20260504182259 | 73 | 215 | 2.0 | 3.0 | 0.00 | 0.00 | 0.00 | 19 | 1007.6 |
| 20260504182159 | 73 | 234 | 1.0 | 5.0 | 0.00 | 0.00 | 0.00 | 20 | 1007.6 |
| 20260504182100 | 73 | 200 | 1.0 | 7.0 | 0.00 | 0.00 | 0.00 | 20 | 1007.6 |
| 20260504181859 | 72 | 54 | 2.0 | 7.0 | 0.00 | 0.00 | 0.00 | 20 | 1007.6 |
| 20260504181759 | 72 | 341 | 2.0 | 7.0 | 0.00 | 0.00 | 0.00 | 23 | 1007.7 |
| 20260504181700 | 72 | 327 | 1.0 | 7.0 | 0.00 | 0.00 | 0.00 | 19 | 1007.8 |
| 20260504181558 | 72 | 323 | 0.0 | 7.0 | 0.00 | 0.00 | 0.00 | 22 | 1007.8 |
| 20260504181500 | 72 | 351 | 0.0 | 7.0 | 0.00 | 0.00 | 0.00 | 19 | 1007.8 |
| 20260504181259 | 71 | 286 | 2.0 | 9.0 | 0.00 | 0.00 | 0.00 | 21 | 1007.9 |
| 20260504181159 | 71 | 281 | 3.0 | 9.0 | 0.00 | 0.00 | 0.00 | 22 | 1007.8 |
| 20260504181100 | 71 | 289 | 4.0 | 9.0 | 0.00 | 0.00 | 0.00 | 25 | 1007.8 |
| 20260504181000 | 71 | 250 | 0.0 | 9.0 | 0.00 | 0.00 | 0.00 | 23 | 1007.8 |
| 20260504180759 | 71 | 212 | 1.0 | 9.0 | 0.00 | 0.00 | 0.00 | 20 | 1007.9 |
| 20260504180659 | 71 | 219 | 3.0 | 9.0 | 0.00 | 0.00 | 0.00 | 20 | 1007.8 |
| 20260504180559 | 71 | 213 | 7.0 | 9.0 | 0.00 | 0.00 | 0.00 | 25 | 1007.8 |
| 20260504180459 | 71 | 233 | 5.0 | 9.0 | 0.00 | 0.00 | 0.00 | 25 | 1007.8 |
| 20260504180359 | 71 | 159 | 1.0 | 7.0 | 0.00 | 0.00 | 0.00 | 22 | 1007.8 |
| 20260504180259 | 71 | 166 | 4.0 | 7.0 | 0.00 | 0.00 | 0.00 | 21 | 1007.8 |
| 20260504180201 | 72 | 155 | 2.0 | 7.0 | 0.00 | 0.00 | 0.00 | 20 | 1007.9 |
| 20260504180100 | 72 | 196 | 5.0 | 7.0 | 0.00 | 0.00 | 0.00 | 22 | 1007.8 |
| 20260504180005 | 72 | 248 | 2.0 | 7.0 | 0.00 | 0.00 | 0.00 | 23 | 1007.8 |
| 20260504175900 | 72 | 255 | 2.0 | 7.0 | 0.00 | 0.00 | 0.00 | 22 | 1007.9 |
| 20260504175701 | 72 | 252 | 1.0 | 7.0 | 0.00 | 0.00 | 0.00 | 22 | 1007.9 |
| 20260504175400 | 72 | 267 | 1.0 | 7.0 | 0.00 | 0.00 | 0.00 | 24 | 1007.9 |
| 20260504175301 | 72 | 171 | 1.0 | 7.0 | 0.00 | 0.00 | 0.00 | 21 | 1007.9 |
| 20260504175200 | 72 | 300 | 1.0 | 7.0 | 0.00 | 0.00 | 0.00 | 21 | 1007.9 |
| 20260504175101 | 72 | 229 | 1.0 | 7.0 | 0.00 | 0.00 | 0.00 | 21 | 1007.9 |
| 20260504175000 | 72 | 227 | 4.0 | 7.0 | 0.00 | 0.00 | 0.00 | 21 | 1007.9 |
| 20260504174901 | 72 | 217 | 4.0 | 6.0 | 0.00 | 0.00 | 0.00 | 22 | 1007.9 |
| 20260504174801 | 72 | 275 | 2.0 | 6.0 | 0.00 | 0.00 | 0.00 | 25 | 1007.9 |
| 20260504174601 | 72 | 216 | 2.0 | 655.0 | 1.77 | 0.00 | 0.00 | 26 | |
| 20260504174501 | 72 | 257 | 3.0 | 6.0 | 0.00 | 0.00 | 0.00 | 25 | 1007.9 |
| 20260504174401 | 72 | 236 | 3.0 | 6.0 | 0.00 | 0.00 | 0.00 | 23 | 1008.0 |
| 20260504174300 | 72 | 193 | 4.0 | 6.0 | 0.00 | 0.00 | 0.00 | 26 | 1008.0 |
| 20260504174201 | 71 | 202 | 1.0 | 6.0 | 0.00 | 0.00 | 0.00 | 25 | 1008.0 |
| 20260504174102 | 71 | 223 | 1.0 | 6.0 | 0.00 | 0.00 | 0.00 | 28 | 1008.0 |
| 20260504174000 | 71 | 201 | 2.0 | 6.0 | 0.00 | 0.00 | 0.00 | 27 | 1008.0 |
| 20260504173900 | 71 | 234 | 2.0 | 6.0 | 0.00 | 0.00 | 0.00 | 29 | 1008.0 |
| 20260504173800 | 71 | 158 | 1.0 | 6.0 | 0.00 | 0.00 | 0.00 | 26 | 1008.0 |
| 20260504173700 | 70 | 115 | 1.0 | 6.0 | 0.00 | 0.00 | 0.00 | 22 | 1008.0 |
| 20260504173600 | 70 | 153 | 1.0 | 6.0 | 0.00 | 0.00 | 0.00 | 24 | 1008.0 |
| 20260504173501 | 70 | 140 | 4.0 | 6.0 | 0.00 | 0.00 | 0.00 | 23 | 1008.0 |
| 20260504173400 | 70 | 154 | 2.0 | 6.0 | 0.00 | 0.00 | 0.00 | 23 | 1008.0 |
| 20260504173301 | 70 | 188 | 0.0 | 6.0 | 0.00 | 0.00 | 0.00 | 25 | 1008.0 |
| 20260504173201 | 70 | 234 | 4.0 | 6.0 | 0.00 | 0.00 | 0.00 | 25 | 1008.0 |
| 20260504173100 | 70 | 237 | 4.0 | 6.0 | 0.00 | 0.00 | 0.00 | 23 | 1008.0 |
| 20260504173001 | 70 | 189 | 3.0 | 6.0 | 0.00 | 0.00 | 0.00 | 22 | 1008.0 |
| 20260504172902 | 70 | 163 | 2.0 | 6.0 | 0.00 | 0.00 | 0.00 | 22 | 1008.1 |
| 20260504172800 | 70 | 175 | 3.0 | 6.0 | 0.00 | 0.00 | 0.00 | 24 | 1008.1 |
| 20260504172701 | 70 | 221 | 3.0 | 6.0 | 0.00 | 0.00 | 0.00 | 24 | 1008.1 |
| 20260504172601 | 70 | 210 | 1.0 | 6.0 | 0.00 | 0.00 | 0.00 | 23 | 1008.1 |
| 20260504172502 | 70 | 143 | 1.0 | 6.0 | 0.00 | 0.00 | 0.00 | 23 | 1008.1 |
| 20260504172401 | 70 | 225 | 2.0 | 6.0 | 0.00 | 0.00 | 0.00 | 23 | 1008.1 |
| 20260504172301 | 70 | 163 | 4.0 | 6.0 | 0.00 | 0.00 | 0.00 | 22 | 1008.2 |
| 20260504172101 | 70 | 177 | 2.0 | 5.0 | 0.00 | 0.00 | 0.00 | 26 | 1008.1 |
| 20260504172001 | 70 | 223 | 2.0 | 5.0 | 0.00 | 0.00 | 0.00 | 25 | 1008.1 |
| 20260504171901 | 70 | 281 | 1.0 | 6.0 | 0.00 | 0.00 | 0.00 | 28 | 1008.1 |
| 20260504171801 | 69 | 27 | 1.0 | 6.0 | 0.00 | 0.00 | 0.00 | 26 | 1008.1 |
| 20260504171700 | 69 | 27 | 1.0 | 6.0 | 0.00 | 0.00 | 0.00 | 25 | 1008.1 |
| 20260504171601 | 69 | 86 | 1.0 | 6.0 | 0.00 | 0.00 | 0.00 | 23 | 1008.1 |
| 20260504171502 | 69 | 178 | 1.0 | 6.0 | 0.00 | 0.00 | 0.00 | 24 | 1008.2 |
| 20260504171400 | 69 | 205 | 3.0 | 6.0 | 0.00 | 0.00 | 0.00 | 23 | 1008.2 |
| 20260504171300 | 69 | 163 | 2.0 | 7.0 | 0.00 | 0.00 | 0.00 | 23 | 1008.2 |
| 20260504171202 | 69 | 175 | 1.0 | 7.0 | 0.00 | 0.00 | 0.00 | 23 | 1008.2 |
| 20260504171100 | 69 | 187 | 1.0 | 7.0 | 0.00 | 0.00 | 0.00 | 24 | 1008.3 |
| 20260504171002 | 69 | 186 | 5.0 | 7.0 | 0.00 | 0.00 | 0.00 | 26 | 1008.2 |
| 20260504170900 | 69 | 242 | 4.0 | 7.0 | 0.00 | 0.00 | 0.00 | 24 | 1008.2 |
| 20260504170802 | 69 | 245 | 4.0 | 7.0 | 0.00 | 0.00 | 0.00 | 24 | 1008.2 |
| 20260504170600 | 69 | 216 | 1.0 | 7.0 | 0.00 | 0.00 | 0.00 | 25 | 1008.2 |
| 20260504170501 | 69 | 215 | 3.0 | 7.0 | 0.00 | 0.00 | 0.00 | 23 | 1008.2 |
| 20260504170400 | 69 | 207 | 4.0 | 7.0 | 0.00 | 0.00 | 0.00 | 24 | 1008.2 |
| 20260504170300 | 69 | 185 | 2.0 | 7.0 | 0.00 | 0.00 | 0.00 | 25 | 1008.2 |
| 20260504170201 | 69 | 176 | 3.0 | 7.0 | 0.00 | 0.00 | 0.00 | 24 | 1008.2 |
| 20260504160401 | 67 | 224 | 3.0 | 5.0 | 0.00 | 0.00 | 0.00 | 26 | 1008.2 |
| 20260504160300 | 67 | 306 | 2.0 | 4.0 | 0.00 | 0.00 | 0.00 | 29 | 1008.3 |
| 20260504160201 | 67 | 196 | 1.0 | 4.0 | 0.00 | 0.00 | 0.00 | 25 | 1008.2 |
| 20260504151001 | 61 | 163 | 4.0 | 6.0 | 0.00 | 0.00 | 0.00 | 27 | 1008.4 |
| 20260504150901 | 61 | 130 | 1.0 | 6.0 | 0.00 | 0.00 | 0.00 | 29 | 1008.3 |
| 20260504150800 | 61 | 60 | 1.0 | 6.0 | 0.00 | 0.00 | 0.00 | 29 | 1008.4 |
| 20260504150701 | 61 | 105 | 1.0 | 6.0 | 0.00 | 0.00 | 0.00 | 29 | 1008.4 |
| 20260504150500 | 61 | 109 | 2.0 | 6.0 | 0.00 | 0.00 | 0.00 | 29 | 1008.4 |
| 20260504150400 | 61 | 153 | 4.0 | 4.0 | 0.00 | 0.00 | 0.00 | 35 | 1008.4 |
| 20260504150201 | 60 | 105 | 0.0 | 6.0 | 0.00 | 0.00 | 0.00 | 30 | 1008.4 |
| 20260504141301 | 53 | 77 | 1.0 | 3.0 | 0.00 | 0.00 | 0.00 | 43 | 1008.5 |
| 20260504141200 | 53 | 77 | 0.0 | 3.0 | 0.00 | 0.00 | 0.00 | 42 | 1008.5 |
| 20260504141001 | 53 | 82 | 2.0 | 3.0 | 0.00 | 0.00 | 0.00 | 43 | 1008.5 |
| 20260504140901 | 53 | 78 | 2.0 | 3.0 | 0.00 | 0.00 | 0.00 | 43 | 1008.5 |
| 20260504140800 | 53 | 89 | 2.0 | 3.0 | 0.00 | 0.00 | 0.00 | 46 | 1008.5 |
| 20260504140700 | 52 | 89 | 2.0 | 2.0 | 0.00 | 0.00 | 0.00 | 44 | 1008.6 |
| 20260504140600 | 52 | 102 | 1.0 | 2.0 | 0.00 | 0.00 | 0.00 | 42 | 1008.5 |
| 20260504140200 | 52 | 102 | 1.0 | 4.0 | 0.00 | 0.00 | 0.00 | 43 | 1008.6 |
| 20260504130759 | 52 | 132 | 3.0 | 5.0 | 0.00 | 0.00 | 0.00 | 39 | 1008.5 |
| 20260504130700 | 52 | 169 | 2.0 | 3.0 | 0.00 | 0.00 | 0.00 | 40 | 1008.5 |
| 20260504130500 | 52 | 82 | 0.0 | 2.0 | 0.00 | 0.00 | 0.00 | 39 | 1008.5 |
| 20260504130400 | 52 | 82 | 0.0 | 2.0 | 0.00 | 0.00 | 0.00 | 38 | 1008.5 |
| 20260504130300 | 52 | 82 | 0.0 | 2.0 | 0.00 | 0.00 | 0.00 | 38 | 1008.4 |
| 20260504120300 | 53 | 74 | 1.0 | 3.0 | 0.00 | 0.00 | 0.00 | 33 | 1008.5 |
| 20260504120200 | 53 | 74 | 2.0 | 3.0 | 0.00 | 0.00 | 0.00 | 33 | 1008.4 |
| 20260504110700 | 55 | 54 | 0.0 | 3.0 | 0.00 | 0.00 | 0.00 | 26 | 1008.5 |
| 20260504110559 | 55 | 54 | 0.0 | 3.0 | 0.00 | 0.00 | 0.00 | 26 | 1008.5 |
| 20260504110500 | 55 | 57 | 2.0 | 3.0 | 0.00 | 0.00 | 0.00 | 26 | 1008.5 |
| 20260504110400 | 55 | 65 | 2.0 | 3.0 | 0.00 | 0.00 | 0.00 | 25 | 1008.5 |
| 20260504110300 | 54 | 109 | 1.0 | 3.0 | 0.00 | 0.00 | 0.00 | 26 | 1008.5 |
| 20260504100500 | 56 | 192 | 2.0 | 2.0 | 0.00 | 0.00 | 0.00 | 25 | 1008.1 |
| 20260504100400 | 56 | 188 | 0.0 | 3.0 | 0.00 | 0.00 | 0.00 | 25 | 1008.1 |
| 20260504100300 | 56 | 182 | 1.0 | 3.0 | 0.00 | 0.00 | 0.00 | 25 | 1008.1 |
| 20260504100200 | 57 | 173 | 0.0 | 3.0 | 0.00 | 0.00 | 0.00 | 26 | 1008.1 |